| State | Missouri | Latest | High (819 cfs) | |
| River | Spring River | Rating | Observed | Estimated |
| Updated | 2026-05-05 8:30 (48 minutes ago) | Flood - The river is flooding. Obstacles can be treacherous or deadly. The river should be avoided at this stage for casual trips and definitely for the inexperienced. Trips should be attempted only with protective gear and equipment.Flood | (none) | 4536 |
| Discharge | 819 cfs (median: 560 cfs) | High - The river is high and potentially dangerous, especially for the young and / or inexperienced. Normal stream obstacles are sometimes difficult to navigate. Extended distances can be attempted, but canoe travel may not be advisable.High | (none) | 612 |
| Height | 2.84 feet | Good - Conditions are ideal for a canoe or kayak. Boats typically will drag on fewer than one-quarter of riffles, if at all, and portages are unnecessary or rare. Normal float lengths can be attempted without a problem.Good | (none) | 547 |
| Trend | Falling (falling over 24 hours) | Low - River is low but can still be floated. Some riffles are okay but most come with significant dragging and might need a portage. Float lengths should be reduced to accommodate low flow, dragging, and portages.Low | (none) | 273 |
| USGS | USGS Site ( Duck Duck Go Maps) | Poor - River is too low to float comfortably. Most or all riffles will drag or must be portaged and some obstacles (such as slick shelf rock) cause undue problems. Avoid the river at this stage for casual paddling trips.Poor | (none) | 51 |
| Date | Start | End | Distance | Condition | Discharge | Height | Fishing | Details |
|---|
A total of 0 rows are displayed.
BLG - Bluegill
CCF - Channel Catfish
CP - Chain Pickerel
FWD - Freshwater Drum
GSF - Green Sunfish
KSB - Kentucky Spotted Bass
LMB - Largemouth Bass
LSF - Longear Sunfish
RB - Rock Bass / Goggle Eye
RSF - Redear Sunfish
RT - Rainbow Trout
SMB - Smallmouth Bass
WB - White Bass
WF - Whitefish
WL - WalleyeThe classic River Trips application is still available for use. It is updated with the new system using a data retrofit. It is no longer maintained. The original River Trips application is no longer updated (as of 1 Dec 2016) but can be checked for errors or for the condition of the data before it was converted to the new system.
| Observation | Height | Discharge | Maximum Discharge | Minimum Discharge | Mean Discharge | P05 | P10 | P20 | P25 | P50 (Median) | P75 | P80 | P90 | P95 |
|---|---|---|---|---|---|---|---|---|---|---|---|---|---|---|
| 2026-05-05 08:30 | 2.84 | 819 | 26200 (1999) | 41 (1956) | 1630 | 152 | 195 | 310 | 351 | 560 | 1270 | 1600 | 2950 | 5370 |
| 2026-05-05 07:30 | 2.90 | 854 | 26200 (1999) | 41 (1956) | 1630 | 152 | 195 | 310 | 351 | 560 | 1270 | 1600 | 2950 | 5370 |
| 2026-05-05 06:30 | 2.87 | 836 | 26200 (1999) | 41 (1956) | 1630 | 152 | 195 | 310 | 351 | 560 | 1270 | 1600 | 2950 | 5370 |
| 2026-05-05 05:30 | 2.85 | 825 | 26200 (1999) | 41 (1956) | 1630 | 152 | 195 | 310 | 351 | 560 | 1270 | 1600 | 2950 | 5370 |
| 2026-05-05 04:30 | 2.92 | 866 | 26200 (1999) | 41 (1956) | 1630 | 152 | 195 | 310 | 351 | 560 | 1270 | 1600 | 2950 | 5370 |
| 2026-05-05 03:30 | 2.91 | 860 | 26200 (1999) | 41 (1956) | 1630 | 152 | 195 | 310 | 351 | 560 | 1270 | 1600 | 2950 | 5370 |
| 2026-05-05 02:30 | 2.89 | 848 | 26200 (1999) | 41 (1956) | 1630 | 152 | 195 | 310 | 351 | 560 | 1270 | 1600 | 2950 | 5370 |
| 2026-05-05 01:30 | 2.85 | 825 | 26200 (1999) | 41 (1956) | 1630 | 152 | 195 | 310 | 351 | 560 | 1270 | 1600 | 2950 | 5370 |
| 2026-05-05 00:30 | 2.86 | 830 | 26200 (1999) | 41 (1956) | 1630 | 152 | 195 | 310 | 351 | 560 | 1270 | 1600 | 2950 | 5370 |
| 2026-05-04 23:30 | 2.93 | 871 | 26200 (1999) | 41 (1956) | 1630 | 152 | 195 | 310 | 351 | 560 | 1270 | 1600 | 2950 | 5370 |
| 2026-05-04 22:30 | 2.91 | 860 | 15900 (2017) | 41 (1956) | 1360 | 156 | 197 | 305 | 345 | 667 | 1280 | 1800 | 3110 | 5790 |
| 2026-05-04 21:30 | 2.91 | 860 | 15900 (2017) | 41 (1956) | 1360 | 156 | 197 | 305 | 345 | 667 | 1280 | 1800 | 3110 | 5790 |
| 2026-05-04 20:30 | 2.93 | 871 | 15900 (2017) | 41 (1956) | 1360 | 156 | 197 | 305 | 345 | 667 | 1280 | 1800 | 3110 | 5790 |
| 2026-05-04 19:30 | 2.93 | 871 | 15900 (2017) | 41 (1956) | 1360 | 156 | 197 | 305 | 345 | 667 | 1280 | 1800 | 3110 | 5790 |
| 2026-05-04 18:30 | 2.90 | 854 | 15900 (2017) | 41 (1956) | 1360 | 156 | 197 | 305 | 345 | 667 | 1280 | 1800 | 3110 | 5790 |
| 2026-05-04 17:30 | 2.96 | 889 | 15900 (2017) | 41 (1956) | 1360 | 156 | 197 | 305 | 345 | 667 | 1280 | 1800 | 3110 | 5790 |
| 2026-05-04 16:30 | 2.95 | 883 | 15900 (2017) | 41 (1956) | 1360 | 156 | 197 | 305 | 345 | 667 | 1280 | 1800 | 3110 | 5790 |
| 2026-05-04 15:30 | 2.96 | 889 | 15900 (2017) | 41 (1956) | 1360 | 156 | 197 | 305 | 345 | 667 | 1280 | 1800 | 3110 | 5790 |
| 2026-05-04 14:30 | 2.99 | 907 | 15900 (2017) | 41 (1956) | 1360 | 156 | 197 | 305 | 345 | 667 | 1280 | 1800 | 3110 | 5790 |
| 2026-05-04 13:30 | 2.96 | 889 | 15900 (2017) | 41 (1956) | 1360 | 156 | 197 | 305 | 345 | 667 | 1280 | 1800 | 3110 | 5790 |
| 2026-05-04 12:30 | 2.96 | 889 | 15900 (2017) | 41 (1956) | 1360 | 156 | 197 | 305 | 345 | 667 | 1280 | 1800 | 3110 | 5790 |
| 2026-05-04 11:30 | 2.98 | 901 | 15900 (2017) | 41 (1956) | 1360 | 156 | 197 | 305 | 345 | 667 | 1280 | 1800 | 3110 | 5790 |
| 2026-05-04 10:30 | 2.97 | 895 | 15900 (2017) | 41 (1956) | 1360 | 156 | 197 | 305 | 345 | 667 | 1280 | 1800 | 3110 | 5790 |
| 2026-05-04 09:30 | 3.02 | 926 | 15900 (2017) | 41 (1956) | 1360 | 156 | 197 | 305 | 345 | 667 | 1280 | 1800 | 3110 | 5790 |
| 2026-05-04 08:30 | 3.01 | 919 | 15900 (2017) | 41 (1956) | 1360 | 156 | 197 | 305 | 345 | 667 | 1280 | 1800 | 3110 | 5790 |
| 2026-05-04 07:30 | 3.01 | 919 | 15900 (2017) | 41 (1956) | 1360 | 156 | 197 | 305 | 345 | 667 | 1280 | 1800 | 3110 | 5790 |
| 2026-05-04 06:30 | 3.02 | 926 | 15900 (2017) | 41 (1956) | 1360 | 156 | 197 | 305 | 345 | 667 | 1280 | 1800 | 3110 | 5790 |
| 2026-05-04 05:30 | 3.02 | 926 | 15900 (2017) | 41 (1956) | 1360 | 156 | 197 | 305 | 345 | 667 | 1280 | 1800 | 3110 | 5790 |
| 2026-05-04 04:30 | 3.07 | 957 | 15900 (2017) | 41 (1956) | 1360 | 156 | 197 | 305 | 345 | 667 | 1280 | 1800 | 3110 | 5790 |
| 2026-05-04 03:30 | 3.00 | 913 | 15900 (2017) | 41 (1956) | 1360 | 156 | 197 | 305 | 345 | 667 | 1280 | 1800 | 3110 | 5790 |
| 2026-05-04 02:30 | 3.05 | 945 | 15900 (2017) | 41 (1956) | 1360 | 156 | 197 | 305 | 345 | 667 | 1280 | 1800 | 3110 | 5790 |
| 2026-05-04 01:30 | 3.06 | 951 | 15900 (2017) | 41 (1956) | 1360 | 156 | 197 | 305 | 345 | 667 | 1280 | 1800 | 3110 | 5790 |
| 2026-05-04 00:30 | 3.08 | 964 | 15900 (2017) | 41 (1956) | 1360 | 156 | 197 | 305 | 345 | 667 | 1280 | 1800 | 3110 | 5790 |
| 2026-05-03 23:30 | 3.09 | 970 | 15900 (2017) | 41 (1956) | 1360 | 156 | 197 | 305 | 345 | 667 | 1280 | 1800 | 3110 | 5790 |
| 2026-05-03 22:30 | 3.07 | 957 | 15200 (2017) | 39 (1956) | 1640 | 167 | 205 | 303 | 340 | 665 | 1640 | 2020 | 4130 | 6430 |
| 2026-05-03 21:30 | 3.08 | 964 | 15200 (2017) | 39 (1956) | 1640 | 167 | 205 | 303 | 340 | 665 | 1640 | 2020 | 4130 | 6430 |
| 2026-05-03 20:30 | 3.08 | 964 | 15200 (2017) | 39 (1956) | 1640 | 167 | 205 | 303 | 340 | 665 | 1640 | 2020 | 4130 | 6430 |
| 2026-05-03 19:30 | 3.10 | 976 | 15200 (2017) | 39 (1956) | 1640 | 167 | 205 | 303 | 340 | 665 | 1640 | 2020 | 4130 | 6430 |
| 2026-05-03 18:30 | 3.07 | 957 | 15200 (2017) | 39 (1956) | 1640 | 167 | 205 | 303 | 340 | 665 | 1640 | 2020 | 4130 | 6430 |
| 2026-05-03 17:30 | 3.09 | 970 | 15200 (2017) | 39 (1956) | 1640 | 167 | 205 | 303 | 340 | 665 | 1640 | 2020 | 4130 | 6430 |
| 2026-05-03 16:30 | 3.11 | 983 | 15200 (2017) | 39 (1956) | 1640 | 167 | 205 | 303 | 340 | 665 | 1640 | 2020 | 4130 | 6430 |
| 2026-05-03 15:30 | 3.11 | 983 | 15200 (2017) | 39 (1956) | 1640 | 167 | 205 | 303 | 340 | 665 | 1640 | 2020 | 4130 | 6430 |
| 2026-05-03 14:30 | 3.10 | 976 | 15200 (2017) | 39 (1956) | 1640 | 167 | 205 | 303 | 340 | 665 | 1640 | 2020 | 4130 | 6430 |
| 2026-05-03 13:30 | 3.16 | 1020 | 15200 (2017) | 39 (1956) | 1640 | 167 | 205 | 303 | 340 | 665 | 1640 | 2020 | 4130 | 6430 |
| 2026-05-03 12:30 | 3.15 | 1010 | 15200 (2017) | 39 (1956) | 1640 | 167 | 205 | 303 | 340 | 665 | 1640 | 2020 | 4130 | 6430 |
| 2026-05-03 11:30 | 3.18 | 1020 | 15200 (2017) | 39 (1956) | 1640 | 167 | 205 | 303 | 340 | 665 | 1640 | 2020 | 4130 | 6430 |
| 2026-05-03 10:30 | 3.15 | 1010 | 15200 (2017) | 39 (1956) | 1640 | 167 | 205 | 303 | 340 | 665 | 1640 | 2020 | 4130 | 6430 |
| 2026-05-03 09:30 | 3.21 | 1040 | 15200 (2017) | 39 (1956) | 1640 | 167 | 205 | 303 | 340 | 665 | 1640 | 2020 | 4130 | 6430 |
| 2026-05-03 08:30 | 3.20 | 1030 | 15200 (2017) | 39 (1956) | 1640 | 167 | 205 | 303 | 340 | 665 | 1640 | 2020 | 4130 | 6430 |
| 2026-05-03 07:30 | 3.20 | 1030 | 15200 (2017) | 39 (1956) | 1640 | 167 | 205 | 303 | 340 | 665 | 1640 | 2020 | 4130 | 6430 |
| 2026-05-03 06:30 | 3.23 | 1050 | 15200 (2017) | 39 (1956) | 1640 | 167 | 205 | 303 | 340 | 665 | 1640 | 2020 | 4130 | 6430 |
| 2026-05-03 05:30 | 3.26 | 1070 | 15200 (2017) | 39 (1956) | 1640 | 167 | 205 | 303 | 340 | 665 | 1640 | 2020 | 4130 | 6430 |
| 2026-05-03 04:30 | 3.26 | 1070 | 15200 (2017) | 39 (1956) | 1640 | 167 | 205 | 303 | 340 | 665 | 1640 | 2020 | 4130 | 6430 |
| 2026-05-03 03:30 | 3.21 | 1040 | 15200 (2017) | 39 (1956) | 1640 | 167 | 205 | 303 | 340 | 665 | 1640 | 2020 | 4130 | 6430 |
| 2026-05-03 02:30 | 3.23 | 1050 | 15200 (2017) | 39 (1956) | 1640 | 167 | 205 | 303 | 340 | 665 | 1640 | 2020 | 4130 | 6430 |
| 2026-05-03 01:30 | 3.29 | 1090 | 15200 (2017) | 39 (1956) | 1640 | 167 | 205 | 303 | 340 | 665 | 1640 | 2020 | 4130 | 6430 |
| 2026-05-03 00:30 | 3.32 | 1120 | 15200 (2017) | 39 (1956) | 1640 | 167 | 205 | 303 | 340 | 665 | 1640 | 2020 | 4130 | 6430 |
| 2026-05-02 23:30 | 3.31 | 1110 | 15200 (2017) | 39 (1956) | 1640 | 167 | 205 | 303 | 340 | 665 | 1640 | 2020 | 4130 | 6430 |
| 2026-05-02 22:30 | 3.28 | 1090 | 23400 (2019) | 39 (1956) | 2250 | 169 | 199 | 320 | 366 | 691 | 1760 | 2220 | 5740 | 10400 |
| 2026-05-02 21:30 | 3.29 | 1090 | 23400 (2019) | 39 (1956) | 2250 | 169 | 199 | 320 | 366 | 691 | 1760 | 2220 | 5740 | 10400 |
| 2026-05-02 20:30 | 3.36 | 1140 | 23400 (2019) | 39 (1956) | 2250 | 169 | 199 | 320 | 366 | 691 | 1760 | 2220 | 5740 | 10400 |
| 2026-05-02 19:30 | 3.33 | 1120 | 23400 (2019) | 39 (1956) | 2250 | 169 | 199 | 320 | 366 | 691 | 1760 | 2220 | 5740 | 10400 |
| 2026-05-02 18:30 | 3.39 | 1160 | 23400 (2019) | 39 (1956) | 2250 | 169 | 199 | 320 | 366 | 691 | 1760 | 2220 | 5740 | 10400 |
| 2026-05-02 17:30 | 3.38 | 1160 | 23400 (2019) | 39 (1956) | 2250 | 169 | 199 | 320 | 366 | 691 | 1760 | 2220 | 5740 | 10400 |
| 2026-05-02 16:30 | 3.36 | 1140 | 23400 (2019) | 39 (1956) | 2250 | 169 | 199 | 320 | 366 | 691 | 1760 | 2220 | 5740 | 10400 |
| 2026-05-02 15:30 | 3.39 | 1160 | 23400 (2019) | 39 (1956) | 2250 | 169 | 199 | 320 | 366 | 691 | 1760 | 2220 | 5740 | 10400 |
| 2026-05-02 14:30 | 3.42 | 1180 | 23400 (2019) | 39 (1956) | 2250 | 169 | 199 | 320 | 366 | 691 | 1760 | 2220 | 5740 | 10400 |
| 2026-05-02 13:30 | 3.45 | 1210 | 23400 (2019) | 39 (1956) | 2250 | 169 | 199 | 320 | 366 | 691 | 1760 | 2220 | 5740 | 10400 |
| 2026-05-02 12:30 | 3.39 | 1160 | 23400 (2019) | 39 (1956) | 2250 | 169 | 199 | 320 | 366 | 691 | 1760 | 2220 | 5740 | 10400 |
| 2026-05-02 11:30 | 3.48 | 1230 | 23400 (2019) | 39 (1956) | 2250 | 169 | 199 | 320 | 366 | 691 | 1760 | 2220 | 5740 | 10400 |
| 2026-05-02 10:30 | 3.49 | 1230 | 23400 (2019) | 39 (1956) | 2250 | 169 | 199 | 320 | 366 | 691 | 1760 | 2220 | 5740 | 10400 |
| 2026-05-02 09:30 | 3.52 | 1250 | 23400 (2019) | 39 (1956) | 2250 | 169 | 199 | 320 | 366 | 691 | 1760 | 2220 | 5740 | 10400 |
| 2026-05-02 08:30 | 3.49 | 1230 | 23400 (2019) | 39 (1956) | 2250 | 169 | 199 | 320 | 366 | 691 | 1760 | 2220 | 5740 | 10400 |
| 2026-05-02 07:30 | 3.58 | 1290 | 23400 (2019) | 39 (1956) | 2250 | 169 | 199 | 320 | 366 | 691 | 1760 | 2220 | 5740 | 10400 |
| 2026-05-02 06:30 | 3.57 | 1280 | 23400 (2019) | 39 (1956) | 2250 | 169 | 199 | 320 | 366 | 691 | 1760 | 2220 | 5740 | 10400 |
| 2026-05-02 05:30 | 3.57 | 1280 | 23400 (2019) | 39 (1956) | 2250 | 169 | 199 | 320 | 366 | 691 | 1760 | 2220 | 5740 | 10400 |
| 2026-05-02 04:30 | 3.63 | 1330 | 23400 (2019) | 39 (1956) | 2250 | 169 | 199 | 320 | 366 | 691 | 1760 | 2220 | 5740 | 10400 |
| 2026-05-02 03:30 | 3.62 | 1320 | 23400 (2019) | 39 (1956) | 2250 | 169 | 199 | 320 | 366 | 691 | 1760 | 2220 | 5740 | 10400 |
| 2026-05-02 02:30 | 3.63 | 1330 | 23400 (2019) | 39 (1956) | 2250 | 169 | 199 | 320 | 366 | 691 | 1760 | 2220 | 5740 | 10400 |
| 2026-05-02 01:30 | 3.64 | 1330 | 23400 (2019) | 39 (1956) | 2250 | 169 | 199 | 320 | 366 | 691 | 1760 | 2220 | 5740 | 10400 |
| 2026-05-02 00:30 | 3.72 | 1390 | 23400 (2019) | 39 (1956) | 2250 | 169 | 199 | 320 | 366 | 691 | 1760 | 2220 | 5740 | 10400 |
| 2026-05-01 23:30 | 3.70 | 1380 | 23400 (2019) | 39 (1956) | 2250 | 169 | 199 | 320 | 366 | 691 | 1760 | 2220 | 5740 | 10400 |
| 2026-05-01 22:30 | 3.73 | 1400 | 36400 (2017) | 34 (1956) | 2530 | 166 | 206 | 325 | 381 | 697 | 1720 | 2300 | 5630 | 13700 |
| 2026-05-01 21:30 | 3.75 | 1410 | 36400 (2017) | 34 (1956) | 2530 | 166 | 206 | 325 | 381 | 697 | 1720 | 2300 | 5630 | 13700 |
| 2026-05-01 20:30 | 3.78 | 1430 | 36400 (2017) | 34 (1956) | 2530 | 166 | 206 | 325 | 381 | 697 | 1720 | 2300 | 5630 | 13700 |
| 2026-05-01 19:30 | 3.70 | 1380 | 36400 (2017) | 34 (1956) | 2530 | 166 | 206 | 325 | 381 | 697 | 1720 | 2300 | 5630 | 13700 |
| 2026-05-01 18:30 | 3.77 | 1430 | 36400 (2017) | 34 (1956) | 2530 | 166 | 206 | 325 | 381 | 697 | 1720 | 2300 | 5630 | 13700 |
| 2026-05-01 17:30 | 3.82 | 1460 | 36400 (2017) | 34 (1956) | 2530 | 166 | 206 | 325 | 381 | 697 | 1720 | 2300 | 5630 | 13700 |
| 2026-05-01 16:30 | 3.82 | 1460 | 36400 (2017) | 34 (1956) | 2530 | 166 | 206 | 325 | 381 | 697 | 1720 | 2300 | 5630 | 13700 |
| 2026-05-01 15:30 | 3.87 | 1490 | 36400 (2017) | 34 (1956) | 2530 | 166 | 206 | 325 | 381 | 697 | 1720 | 2300 | 5630 | 13700 |
| 2026-05-01 14:30 | 3.91 | 1520 | 36400 (2017) | 34 (1956) | 2530 | 166 | 206 | 325 | 381 | 697 | 1720 | 2300 | 5630 | 13700 |
| 2026-05-01 13:30 | 3.92 | 1530 | 36400 (2017) | 34 (1956) | 2530 | 166 | 206 | 325 | 381 | 697 | 1720 | 2300 | 5630 | 13700 |
| 2026-05-01 12:30 | 3.98 | 1570 | 36400 (2017) | 34 (1956) | 2530 | 166 | 206 | 325 | 381 | 697 | 1720 | 2300 | 5630 | 13700 |
| 2026-05-01 11:30 | 4.03 | 1610 | 36400 (2017) | 34 (1956) | 2530 | 166 | 206 | 325 | 381 | 697 | 1720 | 2300 | 5630 | 13700 |
| 2026-05-01 10:30 | 4.03 | 1610 | 36400 (2017) | 34 (1956) | 2530 | 166 | 206 | 325 | 381 | 697 | 1720 | 2300 | 5630 | 13700 |
| 2026-05-01 09:30 | 4.09 | 1650 | 36400 (2017) | 34 (1956) | 2530 | 166 | 206 | 325 | 381 | 697 | 1720 | 2300 | 5630 | 13700 |
| 2026-05-01 08:30 | 4.05 | 1620 | 36400 (2017) | 34 (1956) | 2530 | 166 | 206 | 325 | 381 | 697 | 1720 | 2300 | 5630 | 13700 |
| 2026-05-01 07:30 | 4.13 | 1680 | 36400 (2017) | 34 (1956) | 2530 | 166 | 206 | 325 | 381 | 697 | 1720 | 2300 | 5630 | 13700 |
| 2026-05-01 06:30 | 4.15 | 1700 | 36400 (2017) | 34 (1956) | 2530 | 166 | 206 | 325 | 381 | 697 | 1720 | 2300 | 5630 | 13700 |
| 2026-05-01 05:30 | 4.21 | 1740 | 36400 (2017) | 34 (1956) | 2530 | 166 | 206 | 325 | 381 | 697 | 1720 | 2300 | 5630 | 13700 |
| 2026-05-01 04:30 | 4.23 | 1750 | 36400 (2017) | 34 (1956) | 2530 | 166 | 206 | 325 | 381 | 697 | 1720 | 2300 | 5630 | 13700 |
| 2026-05-01 03:30 | 4.24 | 1760 | 36400 (2017) | 34 (1956) | 2530 | 166 | 206 | 325 | 381 | 697 | 1720 | 2300 | 5630 | 13700 |
| 2026-05-01 02:30 | 4.32 | 1820 | 36400 (2017) | 34 (1956) | 2530 | 166 | 206 | 325 | 381 | 697 | 1720 | 2300 | 5630 | 13700 |
| 2026-05-01 01:30 | 4.29 | 1800 | 36400 (2017) | 34 (1956) | 2530 | 166 | 206 | 325 | 381 | 697 | 1720 | 2300 | 5630 | 13700 |
| 2026-05-01 00:30 | 4.46 | 1930 | 36400 (2017) | 34 (1956) | 2530 | 166 | 206 | 325 | 381 | 697 | 1720 | 2300 | 5630 | 13700 |
| 2026-04-30 23:30 | 4.44 | 1910 | 36400 (2017) | 34 (1956) | 2530 | 166 | 206 | 325 | 381 | 697 | 1720 | 2300 | 5630 | 13700 |
| 2026-04-30 22:30 | 4.56 | 2000 | 45700 (2017) | 34 (1956) | 2120 | 139 | 199 | 323 | 359 | 653 | 1640 | 2140 | 5480 | 9700 |
| 2026-04-30 21:30 | 4.60 | 2030 | 45700 (2017) | 34 (1956) | 2120 | 139 | 199 | 323 | 359 | 653 | 1640 | 2140 | 5480 | 9700 |
| 2026-04-30 20:30 | 4.62 | 2040 | 45700 (2017) | 34 (1956) | 2120 | 139 | 199 | 323 | 359 | 653 | 1640 | 2140 | 5480 | 9700 |
| 2026-04-30 19:30 | 4.67 | 2080 | 45700 (2017) | 34 (1956) | 2120 | 139 | 199 | 323 | 359 | 653 | 1640 | 2140 | 5480 | 9700 |
| 2026-04-30 18:30 | 4.72 | 2120 | 45700 (2017) | 34 (1956) | 2120 | 139 | 199 | 323 | 359 | 653 | 1640 | 2140 | 5480 | 9700 |
| 2026-04-30 17:30 | 4.79 | 2180 | 45700 (2017) | 34 (1956) | 2120 | 139 | 199 | 323 | 359 | 653 | 1640 | 2140 | 5480 | 9700 |
| 2026-04-30 16:30 | 4.81 | 2190 | 45700 (2017) | 34 (1956) | 2120 | 139 | 199 | 323 | 359 | 653 | 1640 | 2140 | 5480 | 9700 |
| 2026-04-30 15:30 | 4.86 | 2230 | 45700 (2017) | 34 (1956) | 2120 | 139 | 199 | 323 | 359 | 653 | 1640 | 2140 | 5480 | 9700 |
| 2026-04-30 14:30 | 4.90 | 2260 | 45700 (2017) | 34 (1956) | 2120 | 139 | 199 | 323 | 359 | 653 | 1640 | 2140 | 5480 | 9700 |
| 2026-04-30 13:30 | 4.95 | 2300 | 45700 (2017) | 34 (1956) | 2120 | 139 | 199 | 323 | 359 | 653 | 1640 | 2140 | 5480 | 9700 |
| 2026-04-30 12:30 | 4.96 | 2300 | 45700 (2017) | 34 (1956) | 2120 | 139 | 199 | 323 | 359 | 653 | 1640 | 2140 | 5480 | 9700 |
| 2026-04-30 11:30 | 4.88 | 2250 | 45700 (2017) | 34 (1956) | 2120 | 139 | 199 | 323 | 359 | 653 | 1640 | 2140 | 5480 | 9700 |
| 2026-04-30 10:30 | 4.94 | 2290 | 45700 (2017) | 34 (1956) | 2120 | 139 | 199 | 323 | 359 | 653 | 1640 | 2140 | 5480 | 9700 |
| 2026-04-30 09:30 | 4.88 | 2250 | 45700 (2017) | 34 (1956) | 2120 | 139 | 199 | 323 | 359 | 653 | 1640 | 2140 | 5480 | 9700 |
| 2026-04-30 08:30 | 4.88 | 2250 | 45700 (2017) | 34 (1956) | 2120 | 139 | 199 | 323 | 359 | 653 | 1640 | 2140 | 5480 | 9700 |
| 2026-04-30 07:30 | 4.96 | 2300 | 45700 (2017) | 34 (1956) | 2120 | 139 | 199 | 323 | 359 | 653 | 1640 | 2140 | 5480 | 9700 |
| 2026-04-30 06:30 | 4.95 | 2300 | 45700 (2017) | 34 (1956) | 2120 | 139 | 199 | 323 | 359 | 653 | 1640 | 2140 | 5480 | 9700 |
| 2026-04-30 05:30 | 4.96 | 2300 | 45700 (2017) | 34 (1956) | 2120 | 139 | 199 | 323 | 359 | 653 | 1640 | 2140 | 5480 | 9700 |
| 2026-04-30 04:30 | 5.04 | 2370 | 45700 (2017) | 34 (1956) | 2120 | 139 | 199 | 323 | 359 | 653 | 1640 | 2140 | 5480 | 9700 |
| 2026-04-30 03:30 | 5.10 | 2420 | 45700 (2017) | 34 (1956) | 2120 | 139 | 199 | 323 | 359 | 653 | 1640 | 2140 | 5480 | 9700 |
| 2026-04-30 02:30 | 5.19 | 2490 | 45700 (2017) | 34 (1956) | 2120 | 139 | 199 | 323 | 359 | 653 | 1640 | 2140 | 5480 | 9700 |
| 2026-04-30 01:30 | 5.30 | 2570 | 45700 (2017) | 34 (1956) | 2120 | 139 | 199 | 323 | 359 | 653 | 1640 | 2140 | 5480 | 9700 |
| 2026-04-30 00:30 | 5.36 | 2620 | 45700 (2017) | 34 (1956) | 2120 | 139 | 199 | 323 | 359 | 653 | 1640 | 2140 | 5480 | 9700 |
| 2026-04-29 23:30 | 5.52 | 2760 | 45700 (2017) | 34 (1956) | 2120 | 139 | 199 | 323 | 359 | 653 | 1640 | 2140 | 5480 | 9700 |
| 2026-04-29 22:30 | 5.61 | 2820 | 12300 (1996) | 38 (1956) | 1390 | 123 | 168 | 301 | 367 | 610 | 1210 | 1530 | 2920 | 7110 |
| 2026-04-29 21:30 | 5.66 | 2870 | 12300 (1996) | 38 (1956) | 1390 | 123 | 168 | 301 | 367 | 610 | 1210 | 1530 | 2920 | 7110 |
| 2026-04-29 20:30 | 5.85 | 3030 | 12300 (1996) | 38 (1956) | 1390 | 123 | 168 | 301 | 367 | 610 | 1210 | 1530 | 2920 | 7110 |
| 2026-04-29 19:30 | 5.98 | 3130 | 12300 (1996) | 38 (1956) | 1390 | 123 | 168 | 301 | 367 | 610 | 1210 | 1530 | 2920 | 7110 |
| 2026-04-29 18:30 | 6.13 | 3260 | 12300 (1996) | 38 (1956) | 1390 | 123 | 168 | 301 | 367 | 610 | 1210 | 1530 | 2920 | 7110 |
| 2026-04-29 17:30 | 6.32 | 3430 | 12300 (1996) | 38 (1956) | 1390 | 123 | 168 | 301 | 367 | 610 | 1210 | 1530 | 2920 | 7110 |
| 2026-04-29 16:30 | 6.49 | 3590 | 12300 (1996) | 38 (1956) | 1390 | 123 | 168 | 301 | 367 | 610 | 1210 | 1530 | 2920 | 7110 |
| 2026-04-29 15:30 | 6.67 | 3750 | 12300 (1996) | 38 (1956) | 1390 | 123 | 168 | 301 | 367 | 610 | 1210 | 1530 | 2920 | 7110 |
| 2026-04-29 14:30 | 6.88 | 3950 | 12300 (1996) | 38 (1956) | 1390 | 123 | 168 | 301 | 367 | 610 | 1210 | 1530 | 2920 | 7110 |
| 2026-04-29 13:30 | 7.08 | 4140 | 12300 (1996) | 38 (1956) | 1390 | 123 | 168 | 301 | 367 | 610 | 1210 | 1530 | 2920 | 7110 |
| 2026-04-29 12:30 | 7.28 | 4330 | 12300 (1996) | 38 (1956) | 1390 | 123 | 168 | 301 | 367 | 610 | 1210 | 1530 | 2920 | 7110 |
| 2026-04-29 11:30 | 7.43 | 4470 | 12300 (1996) | 38 (1956) | 1390 | 123 | 168 | 301 | 367 | 610 | 1210 | 1530 | 2920 | 7110 |
| 2026-04-29 10:30 | 7.65 | 4680 | 12300 (1996) | 38 (1956) | 1390 | 123 | 168 | 301 | 367 | 610 | 1210 | 1530 | 2920 | 7110 |
| 2026-04-29 09:30 | 7.87 | 4900 | 12300 (1996) | 38 (1956) | 1390 | 123 | 168 | 301 | 367 | 610 | 1210 | 1530 | 2920 | 7110 |
| 2026-04-29 08:30 | 8.05 | 5070 | 12300 (1996) | 38 (1956) | 1390 | 123 | 168 | 301 | 367 | 610 | 1210 | 1530 | 2920 | 7110 |
| 2026-04-29 07:30 | 8.15 | 5170 | 12300 (1996) | 38 (1956) | 1390 | 123 | 168 | 301 | 367 | 610 | 1210 | 1530 | 2920 | 7110 |
| 2026-04-29 06:30 | 8.31 | 5320 | 12300 (1996) | 38 (1956) | 1390 | 123 | 168 | 301 | 367 | 610 | 1210 | 1530 | 2920 | 7110 |
| 2026-04-29 05:30 | 8.34 | 5350 | 12300 (1996) | 38 (1956) | 1390 | 123 | 168 | 301 | 367 | 610 | 1210 | 1530 | 2920 | 7110 |
| 2026-04-29 04:30 | 8.35 | 5360 | 12300 (1996) | 38 (1956) | 1390 | 123 | 168 | 301 | 367 | 610 | 1210 | 1530 | 2920 | 7110 |
| 2026-04-29 03:30 | 8.28 | 5290 | 12300 (1996) | 38 (1956) | 1390 | 123 | 168 | 301 | 367 | 610 | 1210 | 1530 | 2920 | 7110 |
| 2026-04-29 02:30 | 8.14 | 5160 | 12300 (1996) | 38 (1956) | 1390 | 123 | 168 | 301 | 367 | 610 | 1210 | 1530 | 2920 | 7110 |
| 2026-04-29 01:30 | 7.95 | 4980 | 12300 (1996) | 38 (1956) | 1390 | 123 | 168 | 301 | 367 | 610 | 1210 | 1530 | 2920 | 7110 |
| 2026-04-29 00:30 | 7.88 | 4910 | 12300 (1996) | 38 (1956) | 1390 | 123 | 168 | 301 | 367 | 610 | 1210 | 1530 | 2920 | 7110 |
| 2026-04-28 23:30 | 7.81 | 4840 | 12300 (1996) | 38 (1956) | 1390 | 123 | 168 | 301 | 367 | 610 | 1210 | 1530 | 2920 | 7110 |
| 2026-04-28 22:30 | 7.72 | 4750 | 17400 (1999) | 38 (1954) | 1410 | 144 | 181 | 293 | 377 | 605 | 1310 | 1520 | 3590 | 5730 |
| 2026-04-28 21:30 | 7.62 | 4660 | 17400 (1999) | 38 (1954) | 1410 | 144 | 181 | 293 | 377 | 605 | 1310 | 1520 | 3590 | 5730 |
| 2026-04-28 20:30 | 7.62 | 4660 | 17400 (1999) | 38 (1954) | 1410 | 144 | 181 | 293 | 377 | 605 | 1310 | 1520 | 3590 | 5730 |
| 2026-04-28 19:30 | 7.46 | 4500 | 17400 (1999) | 38 (1954) | 1410 | 144 | 181 | 293 | 377 | 605 | 1310 | 1520 | 3590 | 5730 |
| 2026-04-28 18:30 | 7.30 | 4340 | 17400 (1999) | 38 (1954) | 1410 | 144 | 181 | 293 | 377 | 605 | 1310 | 1520 | 3590 | 5730 |
| 2026-04-28 17:30 | 6.92 | 3990 | 17400 (1999) | 38 (1954) | 1410 | 144 | 181 | 293 | 377 | 605 | 1310 | 1520 | 3590 | 5730 |
| 2026-04-28 16:30 | 6.28 | 3390 | 17400 (1999) | 38 (1954) | 1410 | 144 | 181 | 293 | 377 | 605 | 1310 | 1520 | 3590 | 5730 |
| 2026-04-28 15:30 | 5.28 | 2560 | 17400 (1999) | 38 (1954) | 1410 | 144 | 181 | 293 | 377 | 605 | 1310 | 1520 | 3590 | 5730 |
| 2026-04-28 14:30 | 4.44 | 1910 | 17400 (1999) | 38 (1954) | 1410 | 144 | 181 | 293 | 377 | 605 | 1310 | 1520 | 3590 | 5730 |
| 2026-04-28 13:30 | 4.03 | 1610 | 17400 (1999) | 38 (1954) | 1410 | 144 | 181 | 293 | 377 | 605 | 1310 | 1520 | 3590 | 5730 |
| 2026-04-28 12:30 | 3.95 | 1550 | 17400 (1999) | 38 (1954) | 1410 | 144 | 181 | 293 | 377 | 605 | 1310 | 1520 | 3590 | 5730 |
| 2026-04-28 11:30 | 3.94 | 1540 | 17400 (1999) | 38 (1954) | 1410 | 144 | 181 | 293 | 377 | 605 | 1310 | 1520 | 3590 | 5730 |
| 2026-04-28 10:30 | 3.97 | 1570 | 17400 (1999) | 38 (1954) | 1410 | 144 | 181 | 293 | 377 | 605 | 1310 | 1520 | 3590 | 5730 |
| 2026-04-28 09:30 | 4.00 | 1590 | 17400 (1999) | 38 (1954) | 1410 | 144 | 181 | 293 | 377 | 605 | 1310 | 1520 | 3590 | 5730 |
| 2026-04-28 08:30 | 4.04 | 1620 | 17400 (1999) | 38 (1954) | 1410 | 144 | 181 | 293 | 377 | 605 | 1310 | 1520 | 3590 | 5730 |
| 2026-04-28 07:30 | 4.12 | 1680 | 17400 (1999) | 38 (1954) | 1410 | 144 | 181 | 293 | 377 | 605 | 1310 | 1520 | 3590 | 5730 |
| 2026-04-28 06:30 | 4.16 | 1710 | 17400 (1999) | 38 (1954) | 1410 | 144 | 181 | 293 | 377 | 605 | 1310 | 1520 | 3590 | 5730 |
| 2026-04-28 05:30 | 4.24 | 1760 | 17400 (1999) | 38 (1954) | 1410 | 144 | 181 | 293 | 377 | 605 | 1310 | 1520 | 3590 | 5730 |
| 2026-04-28 04:30 | 4.27 | 1780 | 17400 (1999) | 38 (1954) | 1410 | 144 | 181 | 293 | 377 | 605 | 1310 | 1520 | 3590 | 5730 |
| 2026-04-28 03:30 | 4.37 | 1860 | 17400 (1999) | 38 (1954) | 1410 | 144 | 181 | 293 | 377 | 605 | 1310 | 1520 | 3590 | 5730 |
| 2026-04-28 02:30 | 4.40 | 1880 | 17400 (1999) | 38 (1954) | 1410 | 144 | 181 | 293 | 377 | 605 | 1310 | 1520 | 3590 | 5730 |
| 2026-04-28 01:30 | 4.49 | 1950 | 17400 (1999) | 38 (1954) | 1410 | 144 | 181 | 293 | 377 | 605 | 1310 | 1520 | 3590 | 5730 |
| 2026-04-28 00:30 | 4.57 | 2000 | 17400 (1999) | 38 (1954) | 1410 | 144 | 181 | 293 | 377 | 605 | 1310 | 1520 | 3590 | 5730 |
| 2026-04-27 23:30 | 4.67 | 2080 | 17400 (1999) | 38 (1954) | 1410 | 144 | 181 | 293 | 377 | 605 | 1310 | 1520 | 3590 | 5730 |
| 2026-04-27 21:30 | 4.81 | 2190 | 24500 (1999) | 39 (1956) | 1800 | 118 | 179 | 301 | 353 | 609 | 1390 | 1550 | 4420 | 8540 |
| 2026-04-27 20:30 | 4.95 | 2300 | 24500 (1999) | 39 (1956) | 1800 | 118 | 179 | 301 | 353 | 609 | 1390 | 1550 | 4420 | 8540 |
| 2026-04-27 19:30 | 5.07 | 2390 | 24500 (1999) | 39 (1956) | 1800 | 118 | 179 | 301 | 353 | 609 | 1390 | 1550 | 4420 | 8540 |
| 2026-04-27 18:30 | 5.24 | 2520 | 24500 (1999) | 39 (1956) | 1800 | 118 | 179 | 301 | 353 | 609 | 1390 | 1550 | 4420 | 8540 |
| 2026-04-27 17:30 | 5.38 | 2640 | 24500 (1999) | 39 (1956) | 1800 | 118 | 179 | 301 | 353 | 609 | 1390 | 1550 | 4420 | 8540 |
| 2026-04-27 16:30 | 5.60 | 2820 | 24500 (1999) | 39 (1956) | 1800 | 118 | 179 | 301 | 353 | 609 | 1390 | 1550 | 4420 | 8540 |
| 2026-04-27 15:30 | 5.85 | 3030 | 24500 (1999) | 39 (1956) | 1800 | 118 | 179 | 301 | 353 | 609 | 1390 | 1550 | 4420 | 8540 |
| 2026-04-27 14:30 | 6.10 | 3240 | 24500 (1999) | 39 (1956) | 1800 | 118 | 179 | 301 | 353 | 609 | 1390 | 1550 | 4420 | 8540 |
| 2026-04-27 13:30 | 6.42 | 3520 | 24500 (1999) | 39 (1956) | 1800 | 118 | 179 | 301 | 353 | 609 | 1390 | 1550 | 4420 | 8540 |
| 2026-04-27 12:30 | 6.66 | 3740 | 24500 (1999) | 39 (1956) | 1800 | 118 | 179 | 301 | 353 | 609 | 1390 | 1550 | 4420 | 8540 |
| 2026-04-27 11:30 | 7.10 | 4160 | 24500 (1999) | 39 (1956) | 1800 | 118 | 179 | 301 | 353 | 609 | 1390 | 1550 | 4420 | 8540 |
| 2026-04-27 10:30 | 7.36 | 4400 | 24500 (1999) | 39 (1956) | 1800 | 118 | 179 | 301 | 353 | 609 | 1390 | 1550 | 4420 | 8540 |
| 2026-04-27 09:30 | 7.50 | 4540 | 24500 (1999) | 39 (1956) | 1800 | 118 | 179 | 301 | 353 | 609 | 1390 | 1550 | 4420 | 8540 |
| 2026-04-27 08:30 | 7.69 | 4720 | 24500 (1999) | 39 (1956) | 1800 | 118 | 179 | 301 | 353 | 609 | 1390 | 1550 | 4420 | 8540 |
| 2026-04-27 07:30 | 7.66 | 4690 | 24500 (1999) | 39 (1956) | 1800 | 118 | 179 | 301 | 353 | 609 | 1390 | 1550 | 4420 | 8540 |
| 2026-04-27 06:30 | 7.71 | 4740 | 24500 (1999) | 39 (1956) | 1800 | 118 | 179 | 301 | 353 | 609 | 1390 | 1550 | 4420 | 8540 |
| 2026-04-27 05:30 | 7.73 | 4760 | 24500 (1999) | 39 (1956) | 1800 | 118 | 179 | 301 | 353 | 609 | 1390 | 1550 | 4420 | 8540 |
| 2026-04-27 04:30 | 7.66 | 4690 | 24500 (1999) | 39 (1956) | 1800 | 118 | 179 | 301 | 353 | 609 | 1390 | 1550 | 4420 | 8540 |
| 2026-04-27 03:30 | 7.53 | 4570 | 24500 (1999) | 39 (1956) | 1800 | 118 | 179 | 301 | 353 | 609 | 1390 | 1550 | 4420 | 8540 |
| 2026-04-27 02:30 | 7.38 | 4420 | 24500 (1999) | 39 (1956) | 1800 | 118 | 179 | 301 | 353 | 609 | 1390 | 1550 | 4420 | 8540 |
| 2026-04-27 01:30 | 7.01 | 4070 | 24500 (1999) | 39 (1956) | 1800 | 118 | 179 | 301 | 353 | 609 | 1390 | 1550 | 4420 | 8540 |
| 2026-04-27 00:30 | 6.09 | 3230 | 24500 (1999) | 39 (1956) | 1800 | 118 | 179 | 301 | 353 | 609 | 1390 | 1550 | 4420 | 8540 |
| 2026-04-26 23:30 | 4.64 | 2060 | 24500 (1999) | 39 (1956) | 1800 | 118 | 179 | 301 | 353 | 609 | 1390 | 1550 | 4420 | 8540 |
| 2026-04-26 22:30 | 3.76 | 1420 | 24000 (1947) | 33 (1954) | 2020 | 86 | 184 | 308 | 377 | 617 | 1510 | 1720 | 5090 | 11300 |
| 2026-04-26 21:30 | 3.56 | 1280 | 24000 (1947) | 33 (1954) | 2020 | 86 | 184 | 308 | 377 | 617 | 1510 | 1720 | 5090 | 11300 |
| 2026-04-26 20:30 | 3.62 | 1320 | 24000 (1947) | 33 (1954) | 2020 | 86 | 184 | 308 | 377 | 617 | 1510 | 1720 | 5090 | 11300 |
| 2026-04-26 19:30 | 3.59 | 1300 | 24000 (1947) | 33 (1954) | 2020 | 86 | 184 | 308 | 377 | 617 | 1510 | 1720 | 5090 | 11300 |
| 2026-04-26 18:30 | 3.63 | 1330 | 24000 (1947) | 33 (1954) | 2020 | 86 | 184 | 308 | 377 | 617 | 1510 | 1720 | 5090 | 11300 |
| 2026-04-26 17:30 | 3.60 | 1310 | 24000 (1947) | 33 (1954) | 2020 | 86 | 184 | 308 | 377 | 617 | 1510 | 1720 | 5090 | 11300 |
| 2026-04-26 16:30 | 3.61 | 1310 | 24000 (1947) | 33 (1954) | 2020 | 86 | 184 | 308 | 377 | 617 | 1510 | 1720 | 5090 | 11300 |
| 2026-04-26 15:30 | 3.64 | 1330 | 24000 (1947) | 33 (1954) | 2020 | 86 | 184 | 308 | 377 | 617 | 1510 | 1720 | 5090 | 11300 |
| 2026-04-26 14:30 | 3.68 | 1360 | 24000 (1947) | 33 (1954) | 2020 | 86 | 184 | 308 | 377 | 617 | 1510 | 1720 | 5090 | 11300 |
| 2026-04-26 13:30 | 3.67 | 1360 | 24000 (1947) | 33 (1954) | 2020 | 86 | 184 | 308 | 377 | 617 | 1510 | 1720 | 5090 | 11300 |
| 2026-04-26 12:30 | 3.74 | 1410 | 24000 (1947) | 33 (1954) | 2020 | 86 | 184 | 308 | 377 | 617 | 1510 | 1720 | 5090 | 11300 |
| 2026-04-26 11:30 | 3.73 | 1400 | 24000 (1947) | 33 (1954) | 2020 | 86 | 184 | 308 | 377 | 617 | 1510 | 1720 | 5090 | 11300 |
| 2026-04-26 10:30 | 3.76 | 1420 | 24000 (1947) | 33 (1954) | 2020 | 86 | 184 | 308 | 377 | 617 | 1510 | 1720 | 5090 | 11300 |
| 2026-04-26 09:30 | 3.72 | 1390 | 24000 (1947) | 33 (1954) | 2020 | 86 | 184 | 308 | 377 | 617 | 1510 | 1720 | 5090 | 11300 |
| 2026-04-26 08:30 | 3.76 | 1420 | 24000 (1947) | 33 (1954) | 2020 | 86 | 184 | 308 | 377 | 617 | 1510 | 1720 | 5090 | 11300 |
| 2026-04-26 07:30 | 3.79 | 1440 | 24000 (1947) | 33 (1954) | 2020 | 86 | 184 | 308 | 377 | 617 | 1510 | 1720 | 5090 | 11300 |
| 2026-04-26 06:30 | 3.77 | 1430 | 24000 (1947) | 33 (1954) | 2020 | 86 | 184 | 308 | 377 | 617 | 1510 | 1720 | 5090 | 11300 |
| 2026-04-26 05:30 | 3.82 | 1460 | 24000 (1947) | 33 (1954) | 2020 | 86 | 184 | 308 | 377 | 617 | 1510 | 1720 | 5090 | 11300 |
| 2026-04-26 04:30 | 3.80 | 1450 | 24000 (1947) | 33 (1954) | 2020 | 86 | 184 | 308 | 377 | 617 | 1510 | 1720 | 5090 | 11300 |
| 2026-04-26 03:30 | 3.83 | 1470 | 24000 (1947) | 33 (1954) | 2020 | 86 | 184 | 308 | 377 | 617 | 1510 | 1720 | 5090 | 11300 |
| 2026-04-26 02:30 | 3.85 | 1480 | 24000 (1947) | 33 (1954) | 2020 | 86 | 184 | 308 | 377 | 617 | 1510 | 1720 | 5090 | 11300 |
| 2026-04-26 01:30 | 3.90 | 1510 | 24000 (1947) | 33 (1954) | 2020 | 86 | 184 | 308 | 377 | 617 | 1510 | 1720 | 5090 | 11300 |
| 2026-04-26 00:30 | 3.91 | 1520 | 24000 (1947) | 33 (1954) | 2020 | 86 | 184 | 308 | 377 | 617 | 1510 | 1720 | 5090 | 11300 |
| 2026-04-25 23:30 | 3.95 | 1550 | 24000 (1947) | 33 (1954) | 2020 | 86 | 184 | 308 | 377 | 617 | 1510 | 1720 | 5090 | 11300 |
| 2026-04-25 22:30 | 3.96 | 1560 | 25900 (1947) | 41 (1956) | 2000 | 90 | 204 | 304 | 353 | 667 | 1790 | 2040 | 4390 | 12200 |
| 2026-04-25 21:30 | 3.98 | 1570 | 25900 (1947) | 41 (1956) | 2000 | 90 | 204 | 304 | 353 | 667 | 1790 | 2040 | 4390 | 12200 |
| 2026-04-25 20:30 | 4.02 | 1600 | 25900 (1947) | 41 (1956) | 2000 | 90 | 204 | 304 | 353 | 667 | 1790 | 2040 | 4390 | 12200 |
| 2026-04-25 19:30 | 4.02 | 1600 | 25900 (1947) | 41 (1956) | 2000 | 90 | 204 | 304 | 353 | 667 | 1790 | 2040 | 4390 | 12200 |
| 2026-04-25 18:30 | 4.09 | 1650 | 25900 (1947) | 41 (1956) | 2000 | 90 | 204 | 304 | 353 | 667 | 1790 | 2040 | 4390 | 12200 |
| 2026-04-25 17:30 | 4.15 | 1700 | 25900 (1947) | 41 (1956) | 2000 | 90 | 204 | 304 | 353 | 667 | 1790 | 2040 | 4390 | 12200 |
| 2026-04-25 16:30 | 4.22 | 1740 | 25900 (1947) | 41 (1956) | 2000 | 90 | 204 | 304 | 353 | 667 | 1790 | 2040 | 4390 | 12200 |
| 2026-04-25 15:30 | 4.19 | 1730 | 25900 (1947) | 41 (1956) | 2000 | 90 | 204 | 304 | 353 | 667 | 1790 | 2040 | 4390 | 12200 |
| 2026-04-25 14:30 | 4.23 | 1750 | 25900 (1947) | 41 (1956) | 2000 | 90 | 204 | 304 | 353 | 667 | 1790 | 2040 | 4390 | 12200 |
| 2026-04-25 13:30 | 4.30 | 1800 | 25900 (1947) | 41 (1956) | 2000 | 90 | 204 | 304 | 353 | 667 | 1790 | 2040 | 4390 | 12200 |
| 2026-04-25 12:30 | 4.36 | 1850 | 25900 (1947) | 41 (1956) | 2000 | 90 | 204 | 304 | 353 | 667 | 1790 | 2040 | 4390 | 12200 |
| 2026-04-25 11:30 | 4.37 | 1860 | 25900 (1947) | 41 (1956) | 2000 | 90 | 204 | 304 | 353 | 667 | 1790 | 2040 | 4390 | 12200 |
| 2026-04-25 10:30 | 4.41 | 1890 | 25900 (1947) | 41 (1956) | 2000 | 90 | 204 | 304 | 353 | 667 | 1790 | 2040 | 4390 | 12200 |
| 2026-04-25 09:30 | 4.46 | 1930 | 25900 (1947) | 41 (1956) | 2000 | 90 | 204 | 304 | 353 | 667 | 1790 | 2040 | 4390 | 12200 |
| 2026-04-25 08:30 | 4.49 | 1950 | 25900 (1947) | 41 (1956) | 2000 | 90 | 204 | 304 | 353 | 667 | 1790 | 2040 | 4390 | 12200 |
| 2026-04-25 07:30 | 4.56 | 2000 | 25900 (1947) | 41 (1956) | 2000 | 90 | 204 | 304 | 353 | 667 | 1790 | 2040 | 4390 | 12200 |
| 2026-04-25 06:30 | 4.54 | 1990 | 25900 (1947) | 41 (1956) | 2000 | 90 | 204 | 304 | 353 | 667 | 1790 | 2040 | 4390 | 12200 |
| 2026-04-25 05:30 | 4.60 | 2030 | 25900 (1947) | 41 (1956) | 2000 | 90 | 204 | 304 | 353 | 667 | 1790 | 2040 | 4390 | 12200 |
| 2026-04-25 04:30 | 4.62 | 2040 | 25900 (1947) | 41 (1956) | 2000 | 90 | 204 | 304 | 353 | 667 | 1790 | 2040 | 4390 | 12200 |
| 2026-04-25 03:30 | 4.59 | 2020 | 25900 (1947) | 41 (1956) | 2000 | 90 | 204 | 304 | 353 | 667 | 1790 | 2040 | 4390 | 12200 |
| 2026-04-25 02:30 | 4.60 | 2030 | 25900 (1947) | 41 (1956) | 2000 | 90 | 204 | 304 | 353 | 667 | 1790 | 2040 | 4390 | 12200 |
| 2026-04-25 01:30 | 4.64 | 2060 | 25900 (1947) | 41 (1956) | 2000 | 90 | 204 | 304 | 353 | 667 | 1790 | 2040 | 4390 | 12200 |
| 2026-04-25 00:30 | 4.63 | 2050 | 25900 (1947) | 41 (1956) | 2000 | 90 | 204 | 304 | 353 | 667 | 1790 | 2040 | 4390 | 12200 |
| 2026-04-24 23:30 | 4.63 | 2050 | 25900 (1947) | 41 (1956) | 2000 | 90 | 204 | 304 | 353 | 667 | 1790 | 2040 | 4390 | 12200 |
| 2026-04-24 22:30 | 4.53 | 1980 | 21000 (1983) | 29 (2006) | 1630 | 99 | 202 | 307 | 377 | 651 | 1620 | 2050 | 4330 | 7510 |
| 2026-04-24 21:30 | 4.49 | 1950 | 21000 (1983) | 29 (2006) | 1630 | 99 | 202 | 307 | 377 | 651 | 1620 | 2050 | 4330 | 7510 |
| 2026-04-24 20:30 | 4.48 | 1940 | 21000 (1983) | 29 (2006) | 1630 | 99 | 202 | 307 | 377 | 651 | 1620 | 2050 | 4330 | 7510 |
| 2026-04-24 19:30 | 4.39 | 1870 | 21000 (1983) | 29 (2006) | 1630 | 99 | 202 | 307 | 377 | 651 | 1620 | 2050 | 4330 | 7510 |
| 2026-04-24 18:30 | 4.43 | 1900 | 21000 (1983) | 29 (2006) | 1630 | 99 | 202 | 307 | 377 | 651 | 1620 | 2050 | 4330 | 7510 |
| 2026-04-24 17:30 | 4.38 | 1860 | 21000 (1983) | 29 (2006) | 1630 | 99 | 202 | 307 | 377 | 651 | 1620 | 2050 | 4330 | 7510 |
| 2026-04-24 16:30 | 4.32 | 1820 | 21000 (1983) | 29 (2006) | 1630 | 99 | 202 | 307 | 377 | 651 | 1620 | 2050 | 4330 | 7510 |
| 2026-04-24 15:30 | 4.28 | 1790 | 21000 (1983) | 29 (2006) | 1630 | 99 | 202 | 307 | 377 | 651 | 1620 | 2050 | 4330 | 7510 |
| 2026-04-24 14:30 | 4.15 | 1700 | 21000 (1983) | 29 (2006) | 1630 | 99 | 202 | 307 | 377 | 651 | 1620 | 2050 | 4330 | 7510 |
| 2026-04-24 13:30 | 4.13 | 1680 | 21000 (1983) | 29 (2006) | 1630 | 99 | 202 | 307 | 377 | 651 | 1620 | 2050 | 4330 | 7510 |
| 2026-04-24 12:30 | 4.00 | 1590 | 21000 (1983) | 29 (2006) | 1630 | 99 | 202 | 307 | 377 | 651 | 1620 | 2050 | 4330 | 7510 |
| 2026-04-24 11:30 | 3.92 | 1530 | 21000 (1983) | 29 (2006) | 1630 | 99 | 202 | 307 | 377 | 651 | 1620 | 2050 | 4330 | 7510 |
| 2026-04-24 10:30 | 3.89 | 1510 | 21000 (1983) | 29 (2006) | 1630 | 99 | 202 | 307 | 377 | 651 | 1620 | 2050 | 4330 | 7510 |
| 2026-04-24 09:30 | 3.83 | 1470 | 21000 (1983) | 29 (2006) | 1630 | 99 | 202 | 307 | 377 | 651 | 1620 | 2050 | 4330 | 7510 |
| 2026-04-24 08:30 | 3.75 | 1410 | 21000 (1983) | 29 (2006) | 1630 | 99 | 202 | 307 | 377 | 651 | 1620 | 2050 | 4330 | 7510 |
| 2026-04-24 07:30 | 3.67 | 1360 | 21000 (1983) | 29 (2006) | 1630 | 99 | 202 | 307 | 377 | 651 | 1620 | 2050 | 4330 | 7510 |
| 2026-04-24 06:30 | 3.54 | 1260 | 21000 (1983) | 29 (2006) | 1630 | 99 | 202 | 307 | 377 | 651 | 1620 | 2050 | 4330 | 7510 |
| 2026-04-24 05:30 | 3.58 | 1290 | 21000 (1983) | 29 (2006) | 1630 | 99 | 202 | 307 | 377 | 651 | 1620 | 2050 | 4330 | 7510 |
| 2026-04-24 05:15 | 3.56 | 1280 | 21000 (1983) | 29 (2006) | 1630 | 99 | 202 | 307 | 377 | 651 | 1620 | 2050 | 4330 | 7510 |
| 2026-04-24 04:30 | 3.45 | 1210 | 21000 (1983) | 29 (2006) | 1630 | 99 | 202 | 307 | 377 | 651 | 1620 | 2050 | 4330 | 7510 |
| 2026-04-24 03:30 | 3.47 | 1220 | 21000 (1983) | 29 (2006) | 1630 | 99 | 202 | 307 | 377 | 651 | 1620 | 2050 | 4330 | 7510 |
| 2026-04-24 02:30 | 3.44 | 1200 | 21000 (1983) | 29 (2006) | 1630 | 99 | 202 | 307 | 377 | 651 | 1620 | 2050 | 4330 | 7510 |
| 2026-04-24 01:30 | 3.47 | 1220 | 21000 (1983) | 29 (2006) | 1630 | 99 | 202 | 307 | 377 | 651 | 1620 | 2050 | 4330 | 7510 |
| 2026-04-24 00:30 | 3.37 | 1150 | 21000 (1983) | 29 (2006) | 1630 | 99 | 202 | 307 | 377 | 651 | 1620 | 2050 | 4330 | 7510 |
| 2026-04-23 23:30 | 3.37 | 1150 | 21000 (1983) | 29 (2006) | 1630 | 99 | 202 | 307 | 377 | 651 | 1620 | 2050 | 4330 | 7510 |
| 2026-04-23 22:30 | 3.40 | 1170 | 16200 (1973) | 24 (2006) | 1610 | 101 | 194 | 303 | 371 | 647 | 1400 | 1820 | 4000 | 8500 |
| 2026-04-23 21:30 | 3.43 | 1190 | 16200 (1973) | 24 (2006) | 1610 | 101 | 194 | 303 | 371 | 647 | 1400 | 1820 | 4000 | 8500 |
| 2026-04-23 20:30 | 3.43 | 1190 | 16200 (1973) | 24 (2006) | 1610 | 101 | 194 | 303 | 371 | 647 | 1400 | 1820 | 4000 | 8500 |
| 2026-04-23 19:30 | 3.44 | 1200 | 16200 (1973) | 24 (2006) | 1610 | 101 | 194 | 303 | 371 | 647 | 1400 | 1820 | 4000 | 8500 |
| 2026-04-23 18:30 | 3.47 | 1220 | 16200 (1973) | 24 (2006) | 1610 | 101 | 194 | 303 | 371 | 647 | 1400 | 1820 | 4000 | 8500 |
| 2026-04-23 17:30 | 3.47 | 1220 | 16200 (1973) | 24 (2006) | 1610 | 101 | 194 | 303 | 371 | 647 | 1400 | 1820 | 4000 | 8500 |
| 2026-04-23 16:30 | 3.48 | 1230 | 16200 (1973) | 24 (2006) | 1610 | 101 | 194 | 303 | 371 | 647 | 1400 | 1820 | 4000 | 8500 |
| 2026-04-23 15:30 | 3.53 | 1260 | 16200 (1973) | 24 (2006) | 1610 | 101 | 194 | 303 | 371 | 647 | 1400 | 1820 | 4000 | 8500 |
| 2026-04-23 14:30 | 3.49 | 1230 | 16200 (1973) | 24 (2006) | 1610 | 101 | 194 | 303 | 371 | 647 | 1400 | 1820 | 4000 | 8500 |
| 2026-04-23 13:30 | 3.44 | 1200 | 16200 (1973) | 24 (2006) | 1610 | 101 | 194 | 303 | 371 | 647 | 1400 | 1820 | 4000 | 8500 |
| 2026-04-23 12:30 | 3.50 | 1240 | 16200 (1973) | 24 (2006) | 1610 | 101 | 194 | 303 | 371 | 647 | 1400 | 1820 | 4000 | 8500 |
| 2026-04-23 11:30 | 3.58 | 1290 | 16200 (1973) | 24 (2006) | 1610 | 101 | 194 | 303 | 371 | 647 | 1400 | 1820 | 4000 | 8500 |
| 2026-04-23 10:30 | 3.58 | 1290 | 16200 (1973) | 24 (2006) | 1610 | 101 | 194 | 303 | 371 | 647 | 1400 | 1820 | 4000 | 8500 |
| 2026-04-23 09:30 | 3.57 | 1280 | 16200 (1973) | 24 (2006) | 1610 | 101 | 194 | 303 | 371 | 647 | 1400 | 1820 | 4000 | 8500 |
| 2026-04-23 08:30 | 3.52 | 1250 | 16200 (1973) | 24 (2006) | 1610 | 101 | 194 | 303 | 371 | 647 | 1400 | 1820 | 4000 | 8500 |
| 2026-04-23 07:30 | 3.58 | 1290 | 16200 (1973) | 24 (2006) | 1610 | 101 | 194 | 303 | 371 | 647 | 1400 | 1820 | 4000 | 8500 |
| 2026-04-23 06:30 | 3.60 | 1310 | 16200 (1973) | 24 (2006) | 1610 | 101 | 194 | 303 | 371 | 647 | 1400 | 1820 | 4000 | 8500 |
| 2026-04-23 05:30 | 3.63 | 1330 | 16200 (1973) | 24 (2006) | 1610 | 101 | 194 | 303 | 371 | 647 | 1400 | 1820 | 4000 | 8500 |
| 2026-04-23 04:30 | 3.61 | 1310 | 16200 (1973) | 24 (2006) | 1610 | 101 | 194 | 303 | 371 | 647 | 1400 | 1820 | 4000 | 8500 |
| 2026-04-23 03:30 | 3.63 | 1330 | 16200 (1973) | 24 (2006) | 1610 | 101 | 194 | 303 | 371 | 647 | 1400 | 1820 | 4000 | 8500 |
| 2026-04-23 02:30 | 3.62 | 1320 | 16200 (1973) | 24 (2006) | 1610 | 101 | 194 | 303 | 371 | 647 | 1400 | 1820 | 4000 | 8500 |
| 2026-04-23 01:30 | 3.69 | 1370 | 16200 (1973) | 24 (2006) | 1610 | 101 | 194 | 303 | 371 | 647 | 1400 | 1820 | 4000 | 8500 |
| 2026-04-23 00:30 | 3.71 | 1380 | 16200 (1973) | 24 (2006) | 1610 | 101 | 194 | 303 | 371 | 647 | 1400 | 1820 | 4000 | 8500 |
| 2026-04-22 23:30 | 3.72 | 1390 | 16200 (1973) | 24 (2006) | 1610 | 101 | 194 | 303 | 371 | 647 | 1400 | 1820 | 4000 | 8500 |
| 2026-04-22 22:30 | 3.74 | 1410 | 15300 (2025) | 25 (2006) | 1730 | 89 | 201 | 296 | 348 | 642 | 1440 | 1790 | 3770 | 12100 |
| 2026-04-22 21:30 | 3.76 | 1420 | 15300 (2025) | 25 (2006) | 1730 | 89 | 201 | 296 | 348 | 642 | 1440 | 1790 | 3770 | 12100 |
| 2026-04-22 20:30 | 3.75 | 1410 | 15300 (2025) | 25 (2006) | 1730 | 89 | 201 | 296 | 348 | 642 | 1440 | 1790 | 3770 | 12100 |
| 2026-04-22 19:30 | 3.81 | 1460 | 15300 (2025) | 25 (2006) | 1730 | 89 | 201 | 296 | 348 | 642 | 1440 | 1790 | 3770 | 12100 |
| 2026-04-22 18:30 | 3.83 | 1470 | 15300 (2025) | 25 (2006) | 1730 | 89 | 201 | 296 | 348 | 642 | 1440 | 1790 | 3770 | 12100 |
| 2026-04-22 17:30 | 3.79 | 1440 | 15300 (2025) | 25 (2006) | 1730 | 89 | 201 | 296 | 348 | 642 | 1440 | 1790 | 3770 | 12100 |
| 2026-04-22 16:30 | 3.84 | 1480 | 15300 (2025) | 25 (2006) | 1730 | 89 | 201 | 296 | 348 | 642 | 1440 | 1790 | 3770 | 12100 |
| 2026-04-22 15:30 | 3.87 | 1490 | 15300 (2025) | 25 (2006) | 1730 | 89 | 201 | 296 | 348 | 642 | 1440 | 1790 | 3770 | 12100 |
| 2026-04-22 14:30 | 3.90 | 1510 | 15300 (2025) | 25 (2006) | 1730 | 89 | 201 | 296 | 348 | 642 | 1440 | 1790 | 3770 | 12100 |
| 2026-04-22 13:30 | 3.93 | 1540 | 15300 (2025) | 25 (2006) | 1730 | 89 | 201 | 296 | 348 | 642 | 1440 | 1790 | 3770 | 12100 |
| 2026-04-22 12:30 | 3.89 | 1510 | 15300 (2025) | 25 (2006) | 1730 | 89 | 201 | 296 | 348 | 642 | 1440 | 1790 | 3770 | 12100 |
| 2026-04-22 11:30 | 3.96 | 1560 | 15300 (2025) | 25 (2006) | 1730 | 89 | 201 | 296 | 348 | 642 | 1440 | 1790 | 3770 | 12100 |
| 2026-04-22 10:30 | 3.99 | 1580 | 15300 (2025) | 25 (2006) | 1730 | 89 | 201 | 296 | 348 | 642 | 1440 | 1790 | 3770 | 12100 |
| 2026-04-22 09:30 | 3.98 | 1570 | 15300 (2025) | 25 (2006) | 1730 | 89 | 201 | 296 | 348 | 642 | 1440 | 1790 | 3770 | 12100 |
| 2026-04-22 08:30 | 3.98 | 1570 | 15300 (2025) | 25 (2006) | 1730 | 89 | 201 | 296 | 348 | 642 | 1440 | 1790 | 3770 | 12100 |
| 2026-04-22 07:30 | 4.07 | 1640 | 15300 (2025) | 25 (2006) | 1730 | 89 | 201 | 296 | 348 | 642 | 1440 | 1790 | 3770 | 12100 |
| 2026-04-22 06:30 | 4.08 | 1650 | 15300 (2025) | 25 (2006) | 1730 | 89 | 201 | 296 | 348 | 642 | 1440 | 1790 | 3770 | 12100 |
| 2026-04-22 05:30 | 4.04 | 1620 | 15300 (2025) | 25 (2006) | 1730 | 89 | 201 | 296 | 348 | 642 | 1440 | 1790 | 3770 | 12100 |
| 2026-04-22 04:30 | 4.12 | 1680 | 15300 (2025) | 25 (2006) | 1730 | 89 | 201 | 296 | 348 | 642 | 1440 | 1790 | 3770 | 12100 |
| 2026-04-22 03:30 | 4.17 | 1710 | 15300 (2025) | 25 (2006) | 1730 | 89 | 201 | 296 | 348 | 642 | 1440 | 1790 | 3770 | 12100 |
| 2026-04-22 02:30 | 4.18 | 1720 | 15300 (2025) | 25 (2006) | 1730 | 89 | 201 | 296 | 348 | 642 | 1440 | 1790 | 3770 | 12100 |
| 2026-04-22 01:30 | 4.12 | 1680 | 15300 (2025) | 25 (2006) | 1730 | 89 | 201 | 296 | 348 | 642 | 1440 | 1790 | 3770 | 12100 |
| 2026-04-22 00:30 | 4.23 | 1750 | 15300 (2025) | 25 (2006) | 1730 | 89 | 201 | 296 | 348 | 642 | 1440 | 1790 | 3770 | 12100 |
| 2026-04-21 23:30 | 4.31 | 1810 | 15300 (2025) | 25 (2006) | 1730 | 89 | 201 | 296 | 348 | 642 | 1440 | 1790 | 3770 | 12100 |
| 2026-04-21 22:30 | 4.30 | 1800 | 18400 (1929) | 26 (2006) | 1870 | 86 | 184 | 291 | 375 | 667 | 1130 | 2210 | 5650 | 10200 |
| 2026-04-21 21:30 | 4.33 | 1830 | 18400 (1929) | 26 (2006) | 1870 | 86 | 184 | 291 | 375 | 667 | 1130 | 2210 | 5650 | 10200 |
| 2026-04-21 20:30 | 4.35 | 1840 | 18400 (1929) | 26 (2006) | 1870 | 86 | 184 | 291 | 375 | 667 | 1130 | 2210 | 5650 | 10200 |
| 2026-04-21 19:30 | 4.40 | 1880 | 18400 (1929) | 26 (2006) | 1870 | 86 | 184 | 291 | 375 | 667 | 1130 | 2210 | 5650 | 10200 |
| 2026-04-21 18:30 | 4.44 | 1910 | 18400 (1929) | 26 (2006) | 1870 | 86 | 184 | 291 | 375 | 667 | 1130 | 2210 | 5650 | 10200 |
| 2026-04-21 17:30 | 4.51 | 1970 | 18400 (1929) | 26 (2006) | 1870 | 86 | 184 | 291 | 375 | 667 | 1130 | 2210 | 5650 | 10200 |
| 2026-04-21 16:30 | 4.53 | 1980 | 18400 (1929) | 26 (2006) | 1870 | 86 | 184 | 291 | 375 | 667 | 1130 | 2210 | 5650 | 10200 |
| 2026-04-21 15:30 | 4.59 | 2020 | 18400 (1929) | 26 (2006) | 1870 | 86 | 184 | 291 | 375 | 667 | 1130 | 2210 | 5650 | 10200 |
| 2026-04-21 14:30 | 4.69 | 2100 | 18400 (1929) | 26 (2006) | 1870 | 86 | 184 | 291 | 375 | 667 | 1130 | 2210 | 5650 | 10200 |
| 2026-04-21 13:30 | 4.73 | 2130 | 18400 (1929) | 26 (2006) | 1870 | 86 | 184 | 291 | 375 | 667 | 1130 | 2210 | 5650 | 10200 |
| 2026-04-21 12:30 | 4.76 | 2150 | 18400 (1929) | 26 (2006) | 1870 | 86 | 184 | 291 | 375 | 667 | 1130 | 2210 | 5650 | 10200 |
| 2026-04-21 11:30 | 4.91 | 2260 | 18400 (1929) | 26 (2006) | 1870 | 86 | 184 | 291 | 375 | 667 | 1130 | 2210 | 5650 | 10200 |
| 2026-04-21 10:30 | 4.99 | 2330 | 18400 (1929) | 26 (2006) | 1870 | 86 | 184 | 291 | 375 | 667 | 1130 | 2210 | 5650 | 10200 |
| 2026-04-21 09:30 | 5.07 | 2390 | 18400 (1929) | 26 (2006) | 1870 | 86 | 184 | 291 | 375 | 667 | 1130 | 2210 | 5650 | 10200 |
| 2026-04-21 08:30 | 5.17 | 2480 | 18400 (1929) | 26 (2006) | 1870 | 86 | 184 | 291 | 375 | 667 | 1130 | 2210 | 5650 | 10200 |
| 2026-04-21 07:30 | 5.29 | 2570 | 18400 (1929) | 26 (2006) | 1870 | 86 | 184 | 291 | 375 | 667 | 1130 | 2210 | 5650 | 10200 |
| 2026-04-21 06:30 | 5.39 | 2650 | 18400 (1929) | 26 (2006) | 1870 | 86 | 184 | 291 | 375 | 667 | 1130 | 2210 | 5650 | 10200 |
| 2026-04-21 05:30 | 5.56 | 2790 | 18400 (1929) | 26 (2006) | 1870 | 86 | 184 | 291 | 375 | 667 | 1130 | 2210 | 5650 | 10200 |
| 2026-04-21 04:30 | 5.74 | 2930 | 18400 (1929) | 26 (2006) | 1870 | 86 | 184 | 291 | 375 | 667 | 1130 | 2210 | 5650 | 10200 |
| 2026-04-21 03:30 | 5.93 | 3090 | 18400 (1929) | 26 (2006) | 1870 | 86 | 184 | 291 | 375 | 667 | 1130 | 2210 | 5650 | 10200 |
| 2026-04-21 02:30 | 5.96 | 3110 | 18400 (1929) | 26 (2006) | 1870 | 86 | 184 | 291 | 375 | 667 | 1130 | 2210 | 5650 | 10200 |
| 2026-04-21 01:30 | 6.28 | 3390 | 18400 (1929) | 26 (2006) | 1870 | 86 | 184 | 291 | 375 | 667 | 1130 | 2210 | 5650 | 10200 |
| 2026-04-21 00:30 | 6.43 | 3530 | 18400 (1929) | 26 (2006) | 1870 | 86 | 184 | 291 | 375 | 667 | 1130 | 2210 | 5650 | 10200 |
| 2026-04-20 23:30 | 6.68 | 3760 | 18400 (1929) | 26 (2006) | 1870 | 86 | 184 | 291 | 375 | 667 | 1130 | 2210 | 5650 | 10200 |
| 2026-04-20 22:30 | 6.90 | 3970 | 26500 (1941) | 27 (2006) | 1620 | 61 | 182 | 279 | 341 | 636 | 1170 | 1390 | 3920 | 6050 |
| 2026-04-20 21:30 | 7.02 | 4080 | 26500 (1941) | 27 (2006) | 1620 | 61 | 182 | 279 | 341 | 636 | 1170 | 1390 | 3920 | 6050 |
| 2026-04-20 20:30 | 7.33 | 4370 | 26500 (1941) | 27 (2006) | 1620 | 61 | 182 | 279 | 341 | 636 | 1170 | 1390 | 3920 | 6050 |
| 2026-04-20 19:30 | 7.47 | 4510 | 26500 (1941) | 27 (2006) | 1620 | 61 | 182 | 279 | 341 | 636 | 1170 | 1390 | 3920 | 6050 |
| 2026-04-20 18:30 | 7.74 | 4770 | 26500 (1941) | 27 (2006) | 1620 | 61 | 182 | 279 | 341 | 636 | 1170 | 1390 | 3920 | 6050 |
| 2026-04-20 17:30 | 7.94 | 4970 | 26500 (1941) | 27 (2006) | 1620 | 61 | 182 | 279 | 341 | 636 | 1170 | 1390 | 3920 | 6050 |
| 2026-04-20 16:30 | 8.01 | 5030 | 26500 (1941) | 27 (2006) | 1620 | 61 | 182 | 279 | 341 | 636 | 1170 | 1390 | 3920 | 6050 |
| 2026-04-20 15:30 | 8.21 | 5230 | 26500 (1941) | 27 (2006) | 1620 | 61 | 182 | 279 | 341 | 636 | 1170 | 1390 | 3920 | 6050 |
| 2026-04-20 14:30 | 8.26 | 5270 | 26500 (1941) | 27 (2006) | 1620 | 61 | 182 | 279 | 341 | 636 | 1170 | 1390 | 3920 | 6050 |
| 2026-04-20 13:30 | 8.45 | 5460 | 26500 (1941) | 27 (2006) | 1620 | 61 | 182 | 279 | 341 | 636 | 1170 | 1390 | 3920 | 6050 |
| 2026-04-20 12:30 | 8.46 | 5470 | 26500 (1941) | 27 (2006) | 1620 | 61 | 182 | 279 | 341 | 636 | 1170 | 1390 | 3920 | 6050 |
| 2026-04-20 11:30 | 8.58 | 5590 | 26500 (1941) | 27 (2006) | 1620 | 61 | 182 | 279 | 341 | 636 | 1170 | 1390 | 3920 | 6050 |
| 2026-04-20 10:30 | 8.54 | 5550 | 26500 (1941) | 27 (2006) | 1620 | 61 | 182 | 279 | 341 | 636 | 1170 | 1390 | 3920 | 6050 |
| 2026-04-20 09:30 | 8.70 | 5710 | 26500 (1941) | 27 (2006) | 1620 | 61 | 182 | 279 | 341 | 636 | 1170 | 1390 | 3920 | 6050 |
| 2026-04-20 08:30 | 8.77 | 5780 | 26500 (1941) | 27 (2006) | 1620 | 61 | 182 | 279 | 341 | 636 | 1170 | 1390 | 3920 | 6050 |
| 2026-04-20 07:30 | 8.94 | 5950 | 26500 (1941) | 27 (2006) | 1620 | 61 | 182 | 279 | 341 | 636 | 1170 | 1390 | 3920 | 6050 |
| 2026-04-20 06:30 | 8.92 | 5930 | 26500 (1941) | 27 (2006) | 1620 | 61 | 182 | 279 | 341 | 636 | 1170 | 1390 | 3920 | 6050 |
| 2026-04-20 05:30 | 9.13 | 6140 | 26500 (1941) | 27 (2006) | 1620 | 61 | 182 | 279 | 341 | 636 | 1170 | 1390 | 3920 | 6050 |
| 2026-04-20 04:30 | 9.23 | 6240 | 26500 (1941) | 27 (2006) | 1620 | 61 | 182 | 279 | 341 | 636 | 1170 | 1390 | 3920 | 6050 |
| 2026-04-20 03:30 | 9.33 | 6350 | 26500 (1941) | 27 (2006) | 1620 | 61 | 182 | 279 | 341 | 636 | 1170 | 1390 | 3920 | 6050 |
| 2026-04-20 02:30 | 9.45 | 6470 | 26500 (1941) | 27 (2006) | 1620 | 61 | 182 | 279 | 341 | 636 | 1170 | 1390 | 3920 | 6050 |
| 2026-04-20 01:30 | 9.68 | 6700 | 26500 (1941) | 27 (2006) | 1620 | 61 | 182 | 279 | 341 | 636 | 1170 | 1390 | 3920 | 6050 |
| 2026-04-20 00:30 | 9.86 | 6890 | 26500 (1941) | 27 (2006) | 1620 | 61 | 182 | 279 | 341 | 636 | 1170 | 1390 | 3920 | 6050 |
| 2026-04-19 23:30 | 10.12 | 7160 | 26500 (1941) | 27 (2006) | 1620 | 61 | 182 | 279 | 341 | 636 | 1170 | 1390 | 3920 | 6050 |
| 2026-04-19 22:30 | 10.26 | 7300 | 19500 (1941) | 30 (2006) | 1290 | 59 | 184 | 288 | 325 | 610 | 966 | 1250 | 2170 | 4530 |
| 2026-04-19 21:30 | 10.65 | 7720 | 19500 (1941) | 30 (2006) | 1290 | 59 | 184 | 288 | 325 | 610 | 966 | 1250 | 2170 | 4530 |
| 2026-04-19 20:30 | 11.10 | 8190 | 19500 (1941) | 30 (2006) | 1290 | 59 | 184 | 288 | 325 | 610 | 966 | 1250 | 2170 | 4530 |
| 2026-04-19 19:30 | 11.44 | 8560 | 19500 (1941) | 30 (2006) | 1290 | 59 | 184 | 288 | 325 | 610 | 966 | 1250 | 2170 | 4530 |
| 2026-04-19 18:30 | 12.06 | 9240 | 19500 (1941) | 30 (2006) | 1290 | 59 | 184 | 288 | 325 | 610 | 966 | 1250 | 2170 | 4530 |
| 2026-04-19 17:30 | 12.52 | 9760 | 19500 (1941) | 30 (2006) | 1290 | 59 | 184 | 288 | 325 | 610 | 966 | 1250 | 2170 | 4530 |
| 2026-04-19 16:30 | 13.10 | 10400 | 19500 (1941) | 30 (2006) | 1290 | 59 | 184 | 288 | 325 | 610 | 966 | 1250 | 2170 | 4530 |
| 2026-04-19 15:30 | 13.69 | 11100 | 19500 (1941) | 30 (2006) | 1290 | 59 | 184 | 288 | 325 | 610 | 966 | 1250 | 2170 | 4530 |
| 2026-04-19 14:30 | 14.34 | 11900 | 19500 (1941) | 30 (2006) | 1290 | 59 | 184 | 288 | 325 | 610 | 966 | 1250 | 2170 | 4530 |
| 2026-04-19 13:30 | 14.94 | 12600 | 19500 (1941) | 30 (2006) | 1290 | 59 | 184 | 288 | 325 | 610 | 966 | 1250 | 2170 | 4530 |
| 2026-04-19 12:30 | 15.49 | 13300 | 19500 (1941) | 30 (2006) | 1290 | 59 | 184 | 288 | 325 | 610 | 966 | 1250 | 2170 | 4530 |
| 2026-04-19 11:30 | 15.74 | 13600 | 19500 (1941) | 30 (2006) | 1290 | 59 | 184 | 288 | 325 | 610 | 966 | 1250 | 2170 | 4530 |
| 2026-04-19 10:30 | 16.01 | 13900 | 19500 (1941) | 30 (2006) | 1290 | 59 | 184 | 288 | 325 | 610 | 966 | 1250 | 2170 | 4530 |
| 2026-04-19 09:30 | 16.40 | 14400 | 19500 (1941) | 30 (2006) | 1290 | 59 | 184 | 288 | 325 | 610 | 966 | 1250 | 2170 | 4530 |
| 2026-04-19 08:30 | 16.36 | 14300 | 19500 (1941) | 30 (2006) | 1290 | 59 | 184 | 288 | 325 | 610 | 966 | 1250 | 2170 | 4530 |
| 2026-04-19 07:30 | 16.68 | 14700 | 19500 (1941) | 30 (2006) | 1290 | 59 | 184 | 288 | 325 | 610 | 966 | 1250 | 2170 | 4530 |
| 2026-04-19 06:30 | 16.86 | 15000 | 19500 (1941) | 30 (2006) | 1290 | 59 | 184 | 288 | 325 | 610 | 966 | 1250 | 2170 | 4530 |
| 2026-04-19 05:30 | 17.02 | 15200 | 19500 (1941) | 30 (2006) | 1290 | 59 | 184 | 288 | 325 | 610 | 966 | 1250 | 2170 | 4530 |
| 2026-04-19 04:30 | 17.00 | 15100 | 19500 (1941) | 30 (2006) | 1290 | 59 | 184 | 288 | 325 | 610 | 966 | 1250 | 2170 | 4530 |
| 2026-04-19 03:30 | 17.04 | 15200 | 19500 (1941) | 30 (2006) | 1290 | 59 | 184 | 288 | 325 | 610 | 966 | 1250 | 2170 | 4530 |
| 2026-04-19 02:30 | 16.96 | 15100 | 19500 (1941) | 30 (2006) | 1290 | 59 | 184 | 288 | 325 | 610 | 966 | 1250 | 2170 | 4530 |
| 2026-04-19 01:30 | 17.04 | 15200 | 19500 (1941) | 30 (2006) | 1290 | 59 | 184 | 288 | 325 | 610 | 966 | 1250 | 2170 | 4530 |
| 2026-04-19 00:30 | 17.06 | 15200 | 19500 (1941) | 30 (2006) | 1290 | 59 | 184 | 288 | 325 | 610 | 966 | 1250 | 2170 | 4530 |
| 2026-04-18 23:30 | 16.86 | 15000 | 19500 (1941) | 30 (2006) | 1290 | 59 | 184 | 288 | 325 | 610 | 966 | 1250 | 2170 | 4530 |
| 2026-04-18 22:30 | 16.99 | 15100 | 10800 (1945) | 30 (2006) | 1200 | 66 | 184 | 281 | 333 | 594 | 1040 | 1130 | 2050 | 6150 |
| 2026-04-18 21:30 | 16.94 | 15100 | 10800 (1945) | 30 (2006) | 1200 | 66 | 184 | 281 | 333 | 594 | 1040 | 1130 | 2050 | 6150 |
| 2026-04-18 20:30 | 16.84 | 14900 | 10800 (1945) | 30 (2006) | 1200 | 66 | 184 | 281 | 333 | 594 | 1040 | 1130 | 2050 | 6150 |
| 2026-04-18 19:30 | 16.87 | 15000 | 10800 (1945) | 30 (2006) | 1200 | 66 | 184 | 281 | 333 | 594 | 1040 | 1130 | 2050 | 6150 |
| 2026-04-18 18:30 | 16.56 | 14600 | 10800 (1945) | 30 (2006) | 1200 | 66 | 184 | 281 | 333 | 594 | 1040 | 1130 | 2050 | 6150 |
| 2026-04-18 17:30 | 16.53 | 14500 | 10800 (1945) | 30 (2006) | 1200 | 66 | 184 | 281 | 333 | 594 | 1040 | 1130 | 2050 | 6150 |
| 2026-04-18 16:30 | 16.60 | 14600 | 10800 (1945) | 30 (2006) | 1200 | 66 | 184 | 281 | 333 | 594 | 1040 | 1130 | 2050 | 6150 |
| 2026-04-18 15:30 | 16.67 | 14700 | 10800 (1945) | 30 (2006) | 1200 | 66 | 184 | 281 | 333 | 594 | 1040 | 1130 | 2050 | 6150 |
| 2026-04-18 14:30 | 16.50 | 14500 | 10800 (1945) | 30 (2006) | 1200 | 66 | 184 | 281 | 333 | 594 | 1040 | 1130 | 2050 | 6150 |
| 2026-04-18 13:30 | 16.29 | 14200 | 10800 (1945) | 30 (2006) | 1200 | 66 | 184 | 281 | 333 | 594 | 1040 | 1130 | 2050 | 6150 |
| 2026-04-18 12:30 | 16.11 | 14000 | 10800 (1945) | 30 (2006) | 1200 | 66 | 184 | 281 | 333 | 594 | 1040 | 1130 | 2050 | 6150 |
| 2026-04-18 11:30 | 16.09 | 14000 | 10800 (1945) | 30 (2006) | 1200 | 66 | 184 | 281 | 333 | 594 | 1040 | 1130 | 2050 | 6150 |
| 2026-04-18 10:30 | 15.65 | 13500 | 10800 (1945) | 30 (2006) | 1200 | 66 | 184 | 281 | 333 | 594 | 1040 | 1130 | 2050 | 6150 |
| 2026-04-18 09:30 | 15.59 | 13400 | 10800 (1945) | 30 (2006) | 1200 | 66 | 184 | 281 | 333 | 594 | 1040 | 1130 | 2050 | 6150 |
| 2026-04-18 08:30 | 15.25 | 13000 | 10800 (1945) | 30 (2006) | 1200 | 66 | 184 | 281 | 333 | 594 | 1040 | 1130 | 2050 | 6150 |
| 2026-04-18 07:30 | 14.79 | 12400 | 10800 (1945) | 30 (2006) | 1200 | 66 | 184 | 281 | 333 | 594 | 1040 | 1130 | 2050 | 6150 |
| 2026-04-18 06:30 | 14.40 | 11900 | 10800 (1945) | 30 (2006) | 1200 | 66 | 184 | 281 | 333 | 594 | 1040 | 1130 | 2050 | 6150 |
| 2026-04-18 05:30 | 13.90 | 11300 | 10800 (1945) | 30 (2006) | 1200 | 66 | 184 | 281 | 333 | 594 | 1040 | 1130 | 2050 | 6150 |
| 2026-04-18 04:30 | 13.41 | 10800 | 10800 (1945) | 30 (2006) | 1200 | 66 | 184 | 281 | 333 | 594 | 1040 | 1130 | 2050 | 6150 |
| 2026-04-18 03:30 | 12.91 | 10200 | 10800 (1945) | 30 (2006) | 1200 | 66 | 184 | 281 | 333 | 594 | 1040 | 1130 | 2050 | 6150 |
| 2026-04-18 02:30 | 12.36 | 9580 | 10800 (1945) | 30 (2006) | 1200 | 66 | 184 | 281 | 333 | 594 | 1040 | 1130 | 2050 | 6150 |
| 2026-04-18 01:30 | 11.77 | 8910 | 10800 (1945) | 30 (2006) | 1200 | 66 | 184 | 281 | 333 | 594 | 1040 | 1130 | 2050 | 6150 |
| 2026-04-18 00:30 | 11.06 | 8150 | 10800 (1945) | 30 (2006) | 1200 | 66 | 184 | 281 | 333 | 594 | 1040 | 1130 | 2050 | 6150 |
| 2026-04-17 23:30 | 10.88 | 7950 | 10800 (1945) | 30 (2006) | 1200 | 66 | 184 | 281 | 333 | 594 | 1040 | 1130 | 2050 | 6150 |
| 2026-04-17 22:30 | 10.93 | 8010 | 21500 (1945) | 30 (2006) | 1330 | 67 | 195 | 298 | 317 | 600 | 1100 | 1330 | 2200 | 4190 |
| 2026-04-17 21:30 | 10.85 | 7920 | 21500 (1945) | 30 (2006) | 1330 | 67 | 195 | 298 | 317 | 600 | 1100 | 1330 | 2200 | 4190 |
| 2026-04-17 20:30 | 10.95 | 8030 | 21500 (1945) | 30 (2006) | 1330 | 67 | 195 | 298 | 317 | 600 | 1100 | 1330 | 2200 | 4190 |
| 2026-04-17 19:30 | 11.25 | 8350 | 21500 (1945) | 30 (2006) | 1330 | 67 | 195 | 298 | 317 | 600 | 1100 | 1330 | 2200 | 4190 |
| 2026-04-17 18:30 | 11.42 | 8540 | 21500 (1945) | 30 (2006) | 1330 | 67 | 195 | 298 | 317 | 600 | 1100 | 1330 | 2200 | 4190 |
| 2026-04-17 17:30 | 11.54 | 8670 | 21500 (1945) | 30 (2006) | 1330 | 67 | 195 | 298 | 317 | 600 | 1100 | 1330 | 2200 | 4190 |
| 2026-04-17 16:30 | 11.65 | 8790 | 21500 (1945) | 30 (2006) | 1330 | 67 | 195 | 298 | 317 | 600 | 1100 | 1330 | 2200 | 4190 |
| 2026-04-17 15:30 | 11.79 | 8940 | 21500 (1945) | 30 (2006) | 1330 | 67 | 195 | 298 | 317 | 600 | 1100 | 1330 | 2200 | 4190 |
| 2026-04-17 14:30 | 11.80 | 8950 | 21500 (1945) | 30 (2006) | 1330 | 67 | 195 | 298 | 317 | 600 | 1100 | 1330 | 2200 | 4190 |
| 2026-04-17 13:30 | 12.10 | 9280 | 21500 (1945) | 30 (2006) | 1330 | 67 | 195 | 298 | 317 | 600 | 1100 | 1330 | 2200 | 4190 |
| 2026-04-17 12:30 | 12.21 | 9410 | 21500 (1945) | 30 (2006) | 1330 | 67 | 195 | 298 | 317 | 600 | 1100 | 1330 | 2200 | 4190 |
| 2026-04-17 11:30 | 12.45 | 9680 | 21500 (1945) | 30 (2006) | 1330 | 67 | 195 | 298 | 317 | 600 | 1100 | 1330 | 2200 | 4190 |
| 2026-04-17 10:30 | 12.44 | 9670 | 21500 (1945) | 30 (2006) | 1330 | 67 | 195 | 298 | 317 | 600 | 1100 | 1330 | 2200 | 4190 |
| 2026-04-17 09:30 | 12.64 | 9890 | 21500 (1945) | 30 (2006) | 1330 | 67 | 195 | 298 | 317 | 600 | 1100 | 1330 | 2200 | 4190 |
| 2026-04-17 08:30 | 12.79 | 10100 | 21500 (1945) | 30 (2006) | 1330 | 67 | 195 | 298 | 317 | 600 | 1100 | 1330 | 2200 | 4190 |
| 2026-04-17 07:30 | 13.07 | 10400 | 21500 (1945) | 30 (2006) | 1330 | 67 | 195 | 298 | 317 | 600 | 1100 | 1330 | 2200 | 4190 |
| 2026-04-17 06:30 | 13.26 | 10600 | 21500 (1945) | 30 (2006) | 1330 | 67 | 195 | 298 | 317 | 600 | 1100 | 1330 | 2200 | 4190 |
| 2026-04-17 05:30 | 13.49 | 10900 | 21500 (1945) | 30 (2006) | 1330 | 67 | 195 | 298 | 317 | 600 | 1100 | 1330 | 2200 | 4190 |
| 2026-04-17 04:30 | 13.69 | 11100 | 21500 (1945) | 30 (2006) | 1330 | 67 | 195 | 298 | 317 | 600 | 1100 | 1330 | 2200 | 4190 |
| 2026-04-17 03:30 | 13.96 | 11400 | 21500 (1945) | 30 (2006) | 1330 | 67 | 195 | 298 | 317 | 600 | 1100 | 1330 | 2200 | 4190 |
| 2026-04-17 02:30 | 14.41 | 11900 | 21500 (1945) | 30 (2006) | 1330 | 67 | 195 | 298 | 317 | 600 | 1100 | 1330 | 2200 | 4190 |
| 2026-04-17 01:30 | 14.51 | 12100 | 21500 (1945) | 30 (2006) | 1330 | 67 | 195 | 298 | 317 | 600 | 1100 | 1330 | 2200 | 4190 |
| 2026-04-17 00:30 | 14.92 | 12600 | 21500 (1945) | 30 (2006) | 1330 | 67 | 195 | 298 | 317 | 600 | 1100 | 1330 | 2200 | 4190 |
| 2026-04-16 23:30 | 15.23 | 12900 | 21500 (1945) | 30 (2006) | 1330 | 67 | 195 | 298 | 317 | 600 | 1100 | 1330 | 2200 | 4190 |
| 2026-04-16 22:30 | 15.56 | 13300 | 35300 (1945) | 31 (2006) | 1720 | 68 | 191 | 289 | 328 | 631 | 1140 | 1370 | 3030 | 7150 |
| 2026-04-16 21:30 | 16.03 | 13900 | 35300 (1945) | 31 (2006) | 1720 | 68 | 191 | 289 | 328 | 631 | 1140 | 1370 | 3030 | 7150 |
| 2026-04-16 20:30 | 16.28 | 14200 | 35300 (1945) | 31 (2006) | 1720 | 68 | 191 | 289 | 328 | 631 | 1140 | 1370 | 3030 | 7150 |
| 2026-04-16 19:30 | 16.70 | 14800 | 35300 (1945) | 31 (2006) | 1720 | 68 | 191 | 289 | 328 | 631 | 1140 | 1370 | 3030 | 7150 |
| 2026-04-16 18:30 | 16.91 | 15000 | 35300 (1945) | 31 (2006) | 1720 | 68 | 191 | 289 | 328 | 631 | 1140 | 1370 | 3030 | 7150 |
| 2026-04-16 17:30 | 17.02 | 15200 | 35300 (1945) | 31 (2006) | 1720 | 68 | 191 | 289 | 328 | 631 | 1140 | 1370 | 3030 | 7150 |
| 2026-04-16 16:30 | 17.19 | 15400 | 35300 (1945) | 31 (2006) | 1720 | 68 | 191 | 289 | 328 | 631 | 1140 | 1370 | 3030 | 7150 |
| 2026-04-16 15:30 | 17.39 | 15600 | 35300 (1945) | 31 (2006) | 1720 | 68 | 191 | 289 | 328 | 631 | 1140 | 1370 | 3030 | 7150 |
| 2026-04-16 14:30 | 17.36 | 15600 | 35300 (1945) | 31 (2006) | 1720 | 68 | 191 | 289 | 328 | 631 | 1140 | 1370 | 3030 | 7150 |
| 2026-04-16 13:30 | 17.32 | 15600 | 35300 (1945) | 31 (2006) | 1720 | 68 | 191 | 289 | 328 | 631 | 1140 | 1370 | 3030 | 7150 |
| 2026-04-16 12:30 | 17.27 | 15500 | 35300 (1945) | 31 (2006) | 1720 | 68 | 191 | 289 | 328 | 631 | 1140 | 1370 | 3030 | 7150 |
| 2026-04-16 11:30 | 17.38 | 15600 | 35300 (1945) | 31 (2006) | 1720 | 68 | 191 | 289 | 328 | 631 | 1140 | 1370 | 3030 | 7150 |
| 2026-04-16 10:30 | 17.26 | 15500 | 35300 (1945) | 31 (2006) | 1720 | 68 | 191 | 289 | 328 | 631 | 1140 | 1370 | 3030 | 7150 |
| 2026-04-16 09:30 | 17.16 | 15300 | 35300 (1945) | 31 (2006) | 1720 | 68 | 191 | 289 | 328 | 631 | 1140 | 1370 | 3030 | 7150 |
| 2026-04-16 08:30 | 17.08 | 15200 | 35300 (1945) | 31 (2006) | 1720 | 68 | 191 | 289 | 328 | 631 | 1140 | 1370 | 3030 | 7150 |
| 2026-04-16 07:30 | 16.91 | 15000 | 35300 (1945) | 31 (2006) | 1720 | 68 | 191 | 289 | 328 | 631 | 1140 | 1370 | 3030 | 7150 |
| 2026-04-16 06:30 | 16.43 | 14400 | 35300 (1945) | 31 (2006) | 1720 | 68 | 191 | 289 | 328 | 631 | 1140 | 1370 | 3030 | 7150 |
| 2026-04-16 05:30 | 16.44 | 14400 | 35300 (1945) | 31 (2006) | 1720 | 68 | 191 | 289 | 328 | 631 | 1140 | 1370 | 3030 | 7150 |
| 2026-04-16 04:30 | 15.96 | 13800 | 35300 (1945) | 31 (2006) | 1720 | 68 | 191 | 289 | 328 | 631 | 1140 | 1370 | 3030 | 7150 |
| 2026-04-16 03:30 | 15.50 | 13300 | 35300 (1945) | 31 (2006) | 1720 | 68 | 191 | 289 | 328 | 631 | 1140 | 1370 | 3030 | 7150 |
| 2026-04-16 02:30 | 14.88 | 12500 | 35300 (1945) | 31 (2006) | 1720 | 68 | 191 | 289 | 328 | 631 | 1140 | 1370 | 3030 | 7150 |
| 2026-04-16 01:30 | 14.02 | 11500 | 35300 (1945) | 31 (2006) | 1720 | 68 | 191 | 289 | 328 | 631 | 1140 | 1370 | 3030 | 7150 |
| 2026-04-16 00:30 | 12.94 | 10200 | 35300 (1945) | 31 (2006) | 1720 | 68 | 191 | 289 | 328 | 631 | 1140 | 1370 | 3030 | 7150 |
| 2026-04-15 23:30 | 11.41 | 8530 | 35300 (1945) | 31 (2006) | 1720 | 68 | 191 | 289 | 328 | 631 | 1140 | 1370 | 3030 | 7150 |
| 2026-04-15 22:30 | 9.79 | 6810 | 23000 (1945) | 33 (2006) | 1570 | 71 | 184 | 266 | 306 | 630 | 1360 | 1700 | 3540 | 5800 |
| 2026-04-15 21:30 | 7.90 | 4930 | 23000 (1945) | 33 (2006) | 1570 | 71 | 184 | 266 | 306 | 630 | 1360 | 1700 | 3540 | 5800 |
| 2026-04-15 20:30 | 5.99 | 3140 | 23000 (1945) | 33 (2006) | 1570 | 71 | 184 | 266 | 306 | 630 | 1360 | 1700 | 3540 | 5800 |
| 2026-04-15 19:30 | 4.27 | 1780 | 23000 (1945) | 33 (2006) | 1570 | 71 | 184 | 266 | 306 | 630 | 1360 | 1700 | 3540 | 5800 |
| 2026-04-15 18:30 | 2.79 | 790 | 23000 (1945) | 33 (2006) | 1570 | 71 | 184 | 266 | 306 | 630 | 1360 | 1700 | 3540 | 5800 |
| 2026-04-15 17:30 | 2.51 | 639 | 23000 (1945) | 33 (2006) | 1570 | 71 | 184 | 266 | 306 | 630 | 1360 | 1700 | 3540 | 5800 |
| 2026-04-15 16:30 | 2.32 | 539 | 23000 (1945) | 33 (2006) | 1570 | 71 | 184 | 266 | 306 | 630 | 1360 | 1700 | 3540 | 5800 |
| 2026-04-15 15:30 | 2.28 | 519 | 23000 (1945) | 33 (2006) | 1570 | 71 | 184 | 266 | 306 | 630 | 1360 | 1700 | 3540 | 5800 |
| 2026-04-15 14:30 | 2.26 | 509 | 23000 (1945) | 33 (2006) | 1570 | 71 | 184 | 266 | 306 | 630 | 1360 | 1700 | 3540 | 5800 |
| 2026-04-15 13:30 | 2.21 | 485 | 23000 (1945) | 33 (2006) | 1570 | 71 | 184 | 266 | 306 | 630 | 1360 | 1700 | 3540 | 5800 |
| 2026-04-15 12:30 | 2.17 | 466 | 23000 (1945) | 33 (2006) | 1570 | 71 | 184 | 266 | 306 | 630 | 1360 | 1700 | 3540 | 5800 |
| 2026-04-15 11:30 | 2.14 | 452 | 23000 (1945) | 33 (2006) | 1570 | 71 | 184 | 266 | 306 | 630 | 1360 | 1700 | 3540 | 5800 |
| 2026-04-15 10:30 | 2.12 | 442 | 23000 (1945) | 33 (2006) | 1570 | 71 | 184 | 266 | 306 | 630 | 1360 | 1700 | 3540 | 5800 |
| 2026-04-15 09:30 | 2.13 | 447 | 23000 (1945) | 33 (2006) | 1570 | 71 | 184 | 266 | 306 | 630 | 1360 | 1700 | 3540 | 5800 |
| 2026-04-15 08:30 | 2.13 | 447 | 23000 (1945) | 33 (2006) | 1570 | 71 | 184 | 266 | 306 | 630 | 1360 | 1700 | 3540 | 5800 |
| 2026-04-15 07:30 | 2.14 | 452 | 23000 (1945) | 33 (2006) | 1570 | 71 | 184 | 266 | 306 | 630 | 1360 | 1700 | 3540 | 5800 |
| 2026-04-15 06:30 | 2.13 | 447 | 23000 (1945) | 33 (2006) | 1570 | 71 | 184 | 266 | 306 | 630 | 1360 | 1700 | 3540 | 5800 |
| 2026-04-15 05:30 | 2.15 | 456 | 23000 (1945) | 33 (2006) | 1570 | 71 | 184 | 266 | 306 | 630 | 1360 | 1700 | 3540 | 5800 |
| 2026-04-15 04:30 | 2.15 | 456 | 23000 (1945) | 33 (2006) | 1570 | 71 | 184 | 266 | 306 | 630 | 1360 | 1700 | 3540 | 5800 |
| 2026-04-15 03:30 | 2.15 | 456 | 23000 (1945) | 33 (2006) | 1570 | 71 | 184 | 266 | 306 | 630 | 1360 | 1700 | 3540 | 5800 |
| 2026-04-15 02:30 | 2.15 | 456 | 23000 (1945) | 33 (2006) | 1570 | 71 | 184 | 266 | 306 | 630 | 1360 | 1700 | 3540 | 5800 |
| 2026-04-15 01:30 | 2.14 | 452 | 23000 (1945) | 33 (2006) | 1570 | 71 | 184 | 266 | 306 | 630 | 1360 | 1700 | 3540 | 5800 |
| 2026-04-15 00:30 | 2.13 | 447 | 23000 (1945) | 33 (2006) | 1570 | 71 | 184 | 266 | 306 | 630 | 1360 | 1700 | 3540 | 5800 |
| 2026-04-14 23:30 | 2.13 | 447 | 23000 (1945) | 33 (2006) | 1570 | 71 | 184 | 266 | 306 | 630 | 1360 | 1700 | 3540 | 5800 |
| 2026-04-14 22:30 | 2.13 | 447 | 27100 (1945) | 35 (2006) | 1540 | 84 | 143 | 248 | 318 | 635 | 1310 | 1460 | 2860 | 4760 |
| 2026-04-14 21:30 | 2.15 | 456 | 27100 (1945) | 35 (2006) | 1540 | 84 | 143 | 248 | 318 | 635 | 1310 | 1460 | 2860 | 4760 |
| 2026-04-14 20:30 | 2.15 | 456 | 27100 (1945) | 35 (2006) | 1540 | 84 | 143 | 248 | 318 | 635 | 1310 | 1460 | 2860 | 4760 |
| 2026-04-14 19:30 | 2.14 | 452 | 27100 (1945) | 35 (2006) | 1540 | 84 | 143 | 248 | 318 | 635 | 1310 | 1460 | 2860 | 4760 |
| 2026-04-14 18:30 | 2.16 | 461 | 27100 (1945) | 35 (2006) | 1540 | 84 | 143 | 248 | 318 | 635 | 1310 | 1460 | 2860 | 4760 |
| 2026-04-14 17:30 | 2.16 | 461 | 27100 (1945) | 35 (2006) | 1540 | 84 | 143 | 248 | 318 | 635 | 1310 | 1460 | 2860 | 4760 |
| 2026-04-14 16:30 | 2.15 | 456 | 27100 (1945) | 35 (2006) | 1540 | 84 | 143 | 248 | 318 | 635 | 1310 | 1460 | 2860 | 4760 |
| 2026-04-14 15:30 | 2.17 | 466 | 27100 (1945) | 35 (2006) | 1540 | 84 | 143 | 248 | 318 | 635 | 1310 | 1460 | 2860 | 4760 |
| 2026-04-14 14:30 | 2.19 | 475 | 27100 (1945) | 35 (2006) | 1540 | 84 | 143 | 248 | 318 | 635 | 1310 | 1460 | 2860 | 4760 |
| 2026-04-14 13:30 | 2.16 | 461 | 27100 (1945) | 35 (2006) | 1540 | 84 | 143 | 248 | 318 | 635 | 1310 | 1460 | 2860 | 4760 |
| 2026-04-14 12:30 | 2.19 | 475 | 27100 (1945) | 35 (2006) | 1540 | 84 | 143 | 248 | 318 | 635 | 1310 | 1460 | 2860 | 4760 |
| 2026-04-14 11:30 | 2.18 | 471 | 27100 (1945) | 35 (2006) | 1540 | 84 | 143 | 248 | 318 | 635 | 1310 | 1460 | 2860 | 4760 |
| 2026-04-14 09:30 | 2.19 | 475 | 27100 (1945) | 35 (2006) | 1540 | 84 | 143 | 248 | 318 | 635 | 1310 | 1460 | 2860 | 4760 |
| 2026-04-14 08:30 | 2.17 | 466 | 27100 (1945) | 35 (2006) | 1540 | 84 | 143 | 248 | 318 | 635 | 1310 | 1460 | 2860 | 4760 |
| 2026-04-14 07:30 | 2.21 | 485 | 27100 (1945) | 35 (2006) | 1540 | 84 | 143 | 248 | 318 | 635 | 1310 | 1460 | 2860 | 4760 |
| 2026-04-14 06:30 | 2.20 | 480 | 27100 (1945) | 35 (2006) | 1540 | 84 | 143 | 248 | 318 | 635 | 1310 | 1460 | 2860 | 4760 |
| 2026-04-14 05:30 | 2.22 | 490 | 27100 (1945) | 35 (2006) | 1540 | 84 | 143 | 248 | 318 | 635 | 1310 | 1460 | 2860 | 4760 |
| 2026-04-14 04:30 | 2.21 | 485 | 27100 (1945) | 35 (2006) | 1540 | 84 | 143 | 248 | 318 | 635 | 1310 | 1460 | 2860 | 4760 |
| 2026-04-14 03:30 | 2.23 | 495 | 27100 (1945) | 35 (2006) | 1540 | 84 | 143 | 248 | 318 | 635 | 1310 | 1460 | 2860 | 4760 |
| 2026-04-14 02:30 | 2.21 | 485 | 27100 (1945) | 35 (2006) | 1540 | 84 | 143 | 248 | 318 | 635 | 1310 | 1460 | 2860 | 4760 |
| 2026-04-14 01:30 | 2.24 | 500 | 27100 (1945) | 35 (2006) | 1540 | 84 | 143 | 248 | 318 | 635 | 1310 | 1460 | 2860 | 4760 |
| 2026-04-14 00:30 | 2.26 | 509 | 27100 (1945) | 35 (2006) | 1540 | 84 | 143 | 248 | 318 | 635 | 1310 | 1460 | 2860 | 4760 |
| 2026-04-13 23:30 | 2.26 | 509 | 27100 (1945) | 35 (2006) | 1540 | 84 | 143 | 248 | 318 | 635 | 1310 | 1460 | 2860 | 4760 |
| 2026-04-13 22:30 | 2.28 | 519 | 32500 (1994) | 37 (2006) | 1570 | 72 | 126 | 249 | 323 | 630 | 1360 | 1510 | 2750 | 7560 |
| 2026-04-13 21:30 | 2.27 | 514 | 32500 (1994) | 37 (2006) | 1570 | 72 | 126 | 249 | 323 | 630 | 1360 | 1510 | 2750 | 7560 |
| 2026-04-13 20:30 | 2.27 | 514 | 32500 (1994) | 37 (2006) | 1570 | 72 | 126 | 249 | 323 | 630 | 1360 | 1510 | 2750 | 7560 |
| 2026-04-13 19:30 | 2.30 | 529 | 32500 (1994) | 37 (2006) | 1570 | 72 | 126 | 249 | 323 | 630 | 1360 | 1510 | 2750 | 7560 |
| 2026-04-13 18:30 | 2.33 | 545 | 32500 (1994) | 37 (2006) | 1570 | 72 | 126 | 249 | 323 | 630 | 1360 | 1510 | 2750 | 7560 |
| 2026-04-13 17:30 | 2.30 | 529 | 32500 (1994) | 37 (2006) | 1570 | 72 | 126 | 249 | 323 | 630 | 1360 | 1510 | 2750 | 7560 |
| 2026-04-13 16:30 | 2.33 | 545 | 32500 (1994) | 37 (2006) | 1570 | 72 | 126 | 249 | 323 | 630 | 1360 | 1510 | 2750 | 7560 |
| 2026-04-13 15:30 | 2.34 | 550 | 32500 (1994) | 37 (2006) | 1570 | 72 | 126 | 249 | 323 | 630 | 1360 | 1510 | 2750 | 7560 |
| 2026-04-13 14:30 | 2.35 | 555 | 32500 (1994) | 37 (2006) | 1570 | 72 | 126 | 249 | 323 | 630 | 1360 | 1510 | 2750 | 7560 |
| 2026-04-13 13:30 | 2.36 | 560 | 32500 (1994) | 37 (2006) | 1570 | 72 | 126 | 249 | 323 | 630 | 1360 | 1510 | 2750 | 7560 |
| 2026-04-13 12:30 | 2.37 | 565 | 32500 (1994) | 37 (2006) | 1570 | 72 | 126 | 249 | 323 | 630 | 1360 | 1510 | 2750 | 7560 |
| 2026-04-13 11:30 | 2.39 | 575 | 32500 (1994) | 37 (2006) | 1570 | 72 | 126 | 249 | 323 | 630 | 1360 | 1510 | 2750 | 7560 |
| 2026-04-13 10:30 | 2.39 | 575 | 32500 (1994) | 37 (2006) | 1570 | 72 | 126 | 249 | 323 | 630 | 1360 | 1510 | 2750 | 7560 |
| 2026-04-13 09:30 | 2.41 | 586 | 32500 (1994) | 37 (2006) | 1570 | 72 | 126 | 249 | 323 | 630 | 1360 | 1510 | 2750 | 7560 |
| 2026-04-13 08:30 | 2.41 | 586 | 32500 (1994) | 37 (2006) | 1570 | 72 | 126 | 249 | 323 | 630 | 1360 | 1510 | 2750 | 7560 |
| 2026-04-13 07:30 | 2.42 | 591 | 32500 (1994) | 37 (2006) | 1570 | 72 | 126 | 249 | 323 | 630 | 1360 | 1510 | 2750 | 7560 |
| 2026-04-13 06:30 | 2.42 | 591 | 32500 (1994) | 37 (2006) | 1570 | 72 | 126 | 249 | 323 | 630 | 1360 | 1510 | 2750 | 7560 |
| 2026-04-13 05:30 | 2.48 | 623 | 32500 (1994) | 37 (2006) | 1570 | 72 | 126 | 249 | 323 | 630 | 1360 | 1510 | 2750 | 7560 |
| 2026-04-13 04:30 | 2.50 | 634 | 32500 (1994) | 37 (2006) | 1570 | 72 | 126 | 249 | 323 | 630 | 1360 | 1510 | 2750 | 7560 |
| 2026-04-13 03:30 | 2.52 | 644 | 32500 (1994) | 37 (2006) | 1570 | 72 | 126 | 249 | 323 | 630 | 1360 | 1510 | 2750 | 7560 |
| 2026-04-13 02:30 | 2.53 | 650 | 32500 (1994) | 37 (2006) | 1570 | 72 | 126 | 249 | 323 | 630 | 1360 | 1510 | 2750 | 7560 |
| 2026-04-13 01:30 | 2.53 | 650 | 32500 (1994) | 37 (2006) | 1570 | 72 | 126 | 249 | 323 | 630 | 1360 | 1510 | 2750 | 7560 |
| 2026-04-13 00:30 | 2.56 | 665 | 32500 (1994) | 37 (2006) | 1570 | 72 | 126 | 249 | 323 | 630 | 1360 | 1510 | 2750 | 7560 |
| 2026-04-12 23:30 | 2.61 | 692 | 32500 (1994) | 37 (2006) | 1570 | 72 | 126 | 249 | 323 | 630 | 1360 | 1510 | 2750 | 7560 |
| 2026-04-12 22:30 | 2.59 | 681 | 48500 (1994) | 24 (1954) | 1870 | 72 | 124 | 240 | 282 | 655 | 1320 | 1480 | 3580 | 7030 |
| 2026-04-12 21:30 | 2.65 | 713 | 48500 (1994) | 24 (1954) | 1870 | 72 | 124 | 240 | 282 | 655 | 1320 | 1480 | 3580 | 7030 |
| 2026-04-12 20:30 | 2.64 | 708 | 48500 (1994) | 24 (1954) | 1870 | 72 | 124 | 240 | 282 | 655 | 1320 | 1480 | 3580 | 7030 |
| 2026-04-12 19:30 | 2.67 | 724 | 48500 (1994) | 24 (1954) | 1870 | 72 | 124 | 240 | 282 | 655 | 1320 | 1480 | 3580 | 7030 |
| 2026-04-12 18:30 | 2.68 | 729 | 48500 (1994) | 24 (1954) | 1870 | 72 | 124 | 240 | 282 | 655 | 1320 | 1480 | 3580 | 7030 |
| 2026-04-12 17:30 | 2.71 | 746 | 48500 (1994) | 24 (1954) | 1870 | 72 | 124 | 240 | 282 | 655 | 1320 | 1480 | 3580 | 7030 |
| 2026-04-12 16:30 | 2.79 | 790 | 48500 (1994) | 24 (1954) | 1870 | 72 | 124 | 240 | 282 | 655 | 1320 | 1480 | 3580 | 7030 |
| 2026-04-12 15:30 | 2.80 | 796 | 48500 (1994) | 24 (1954) | 1870 | 72 | 124 | 240 | 282 | 655 | 1320 | 1480 | 3580 | 7030 |
| 2026-04-12 14:30 | 2.81 | 802 | 48500 (1994) | 24 (1954) | 1870 | 72 | 124 | 240 | 282 | 655 | 1320 | 1480 | 3580 | 7030 |
| 2026-04-12 13:30 | 2.84 | 819 | 48500 (1994) | 24 (1954) | 1870 | 72 | 124 | 240 | 282 | 655 | 1320 | 1480 | 3580 | 7030 |
| 2026-04-12 12:30 | 2.88 | 842 | 48500 (1994) | 24 (1954) | 1870 | 72 | 124 | 240 | 282 | 655 | 1320 | 1480 | 3580 | 7030 |
| 2026-04-12 11:30 | 2.91 | 860 | 48500 (1994) | 24 (1954) | 1870 | 72 | 124 | 240 | 282 | 655 | 1320 | 1480 | 3580 | 7030 |
| 2026-04-12 10:30 | 2.94 | 877 | 48500 (1994) | 24 (1954) | 1870 | 72 | 124 | 240 | 282 | 655 | 1320 | 1480 | 3580 | 7030 |
| 2026-04-12 09:30 | 2.95 | 883 | 48500 (1994) | 24 (1954) | 1870 | 72 | 124 | 240 | 282 | 655 | 1320 | 1480 | 3580 | 7030 |
| 2026-04-12 08:30 | 2.99 | 907 | 48500 (1994) | 24 (1954) | 1870 | 72 | 124 | 240 | 282 | 655 | 1320 | 1480 | 3580 | 7030 |
| 2026-04-12 07:30 | 3.00 | 913 | 48500 (1994) | 24 (1954) | 1870 | 72 | 124 | 240 | 282 | 655 | 1320 | 1480 | 3580 | 7030 |
| 2026-04-12 06:30 | 3.03 | 932 | 48500 (1994) | 24 (1954) | 1870 | 72 | 124 | 240 | 282 | 655 | 1320 | 1480 | 3580 | 7030 |
| 2026-04-12 05:30 | 3.05 | 945 | 48500 (1994) | 24 (1954) | 1870 | 72 | 124 | 240 | 282 | 655 | 1320 | 1480 | 3580 | 7030 |
| 2026-04-12 04:30 | 3.07 | 957 | 48500 (1994) | 24 (1954) | 1870 | 72 | 124 | 240 | 282 | 655 | 1320 | 1480 | 3580 | 7030 |
| 2026-04-12 03:30 | 3.08 | 964 | 48500 (1994) | 24 (1954) | 1870 | 72 | 124 | 240 | 282 | 655 | 1320 | 1480 | 3580 | 7030 |
| 2026-04-12 02:30 | 3.07 | 957 | 48500 (1994) | 24 (1954) | 1870 | 72 | 124 | 240 | 282 | 655 | 1320 | 1480 | 3580 | 7030 |
| 2026-04-12 01:30 | 3.08 | 964 | 48500 (1994) | 24 (1954) | 1870 | 72 | 124 | 240 | 282 | 655 | 1320 | 1480 | 3580 | 7030 |
| 2026-04-12 00:30 | 3.07 | 957 | 48500 (1994) | 24 (1954) | 1870 | 72 | 124 | 240 | 282 | 655 | 1320 | 1480 | 3580 | 7030 |
| 2026-04-11 23:30 | 3.05 | 945 | 48500 (1994) | 24 (1954) | 1870 | 72 | 124 | 240 | 282 | 655 | 1320 | 1480 | 3580 | 7030 |
| 2026-04-11 22:30 | 3.05 | 945 | 39400 (2008) | 26 (1954) | 1960 | 73 | 122 | 253 | 302 | 638 | 1060 | 1490 | 4460 | 9550 |
| 2026-04-11 21:30 | 3.01 | 919 | 39400 (2008) | 26 (1954) | 1960 | 73 | 122 | 253 | 302 | 638 | 1060 | 1490 | 4460 | 9550 |
| 2026-04-11 20:30 | 2.97 | 895 | 39400 (2008) | 26 (1954) | 1960 | 73 | 122 | 253 | 302 | 638 | 1060 | 1490 | 4460 | 9550 |
| 2026-04-11 19:30 | 2.91 | 860 | 39400 (2008) | 26 (1954) | 1960 | 73 | 122 | 253 | 302 | 638 | 1060 | 1490 | 4460 | 9550 |
| 2026-04-11 18:30 | 2.82 | 807 | 39400 (2008) | 26 (1954) | 1960 | 73 | 122 | 253 | 302 | 638 | 1060 | 1490 | 4460 | 9550 |
| 2026-04-11 17:30 | 2.76 | 774 | 39400 (2008) | 26 (1954) | 1960 | 73 | 122 | 253 | 302 | 638 | 1060 | 1490 | 4460 | 9550 |
| 2026-04-11 16:30 | 2.73 | 757 | 39400 (2008) | 26 (1954) | 1960 | 73 | 122 | 253 | 302 | 638 | 1060 | 1490 | 4460 | 9550 |
| 2026-04-11 15:30 | 2.73 | 757 | 39400 (2008) | 26 (1954) | 1960 | 73 | 122 | 253 | 302 | 638 | 1060 | 1490 | 4460 | 9550 |
| 2026-04-11 14:30 | 2.67 | 724 | 39400 (2008) | 26 (1954) | 1960 | 73 | 122 | 253 | 302 | 638 | 1060 | 1490 | 4460 | 9550 |
| 2026-04-11 13:30 | 2.69 | 735 | 39400 (2008) | 26 (1954) | 1960 | 73 | 122 | 253 | 302 | 638 | 1060 | 1490 | 4460 | 9550 |
| 2026-04-11 12:30 | 2.67 | 724 | 39400 (2008) | 26 (1954) | 1960 | 73 | 122 | 253 | 302 | 638 | 1060 | 1490 | 4460 | 9550 |
| 2026-04-11 11:30 | 2.67 | 724 | 39400 (2008) | 26 (1954) | 1960 | 73 | 122 | 253 | 302 | 638 | 1060 | 1490 | 4460 | 9550 |
| 2026-04-11 10:30 | 2.68 | 729 | 39400 (2008) | 26 (1954) | 1960 | 73 | 122 | 253 | 302 | 638 | 1060 | 1490 | 4460 | 9550 |
| 2026-04-11 09:30 | 2.71 | 746 | 39400 (2008) | 26 (1954) | 1960 | 73 | 122 | 253 | 302 | 638 | 1060 | 1490 | 4460 | 9550 |
| 2026-04-11 08:30 | 2.72 | 751 | 39400 (2008) | 26 (1954) | 1960 | 73 | 122 | 253 | 302 | 638 | 1060 | 1490 | 4460 | 9550 |
| 2026-04-11 07:30 | 2.76 | 774 | 39400 (2008) | 26 (1954) | 1960 | 73 | 122 | 253 | 302 | 638 | 1060 | 1490 | 4460 | 9550 |
| 2026-04-11 06:30 | 2.76 | 774 | 39400 (2008) | 26 (1954) | 1960 | 73 | 122 | 253 | 302 | 638 | 1060 | 1490 | 4460 | 9550 |
| 2026-04-11 05:30 | 2.77 | 779 | 39400 (2008) | 26 (1954) | 1960 | 73 | 122 | 253 | 302 | 638 | 1060 | 1490 | 4460 | 9550 |
| 2026-04-11 04:30 | 2.73 | 757 | 39400 (2008) | 26 (1954) | 1960 | 73 | 122 | 253 | 302 | 638 | 1060 | 1490 | 4460 | 9550 |
| 2026-04-11 03:30 | 2.66 | 718 | 39400 (2008) | 26 (1954) | 1960 | 73 | 122 | 253 | 302 | 638 | 1060 | 1490 | 4460 | 9550 |
| 2026-04-11 02:30 | 2.58 | 676 | 39400 (2008) | 26 (1954) | 1960 | 73 | 122 | 253 | 302 | 638 | 1060 | 1490 | 4460 | 9550 |
| 2026-04-11 01:30 | 2.46 | 612 | 39400 (2008) | 26 (1954) | 1960 | 73 | 122 | 253 | 302 | 638 | 1060 | 1490 | 4460 | 9550 |
| 2026-04-11 00:30 | 2.30 | 529 | 39400 (2008) | 26 (1954) | 1960 | 73 | 122 | 253 | 302 | 638 | 1060 | 1490 | 4460 | 9550 |
| 2026-04-10 23:30 | 2.17 | 466 | 39400 (2008) | 26 (1954) | 1960 | 73 | 122 | 253 | 302 | 638 | 1060 | 1490 | 4460 | 9550 |
| 2026-04-10 22:30 | 2.13 | 447 | 20400 (1927) | 22 (1954) | 1670 | 75 | 125 | 258 | 299 | 616 | 1140 | 1440 | 3530 | 8690 |
| 2026-04-10 21:30 | 2.10 | 433 | 20400 (1927) | 22 (1954) | 1670 | 75 | 125 | 258 | 299 | 616 | 1140 | 1440 | 3530 | 8690 |
| 2026-04-10 20:30 | 2.11 | 438 | 20400 (1927) | 22 (1954) | 1670 | 75 | 125 | 258 | 299 | 616 | 1140 | 1440 | 3530 | 8690 |
| 2026-04-10 19:30 | 2.11 | 438 | 20400 (1927) | 22 (1954) | 1670 | 75 | 125 | 258 | 299 | 616 | 1140 | 1440 | 3530 | 8690 |
| 2026-04-10 18:30 | 2.09 | 428 | 20400 (1927) | 22 (1954) | 1670 | 75 | 125 | 258 | 299 | 616 | 1140 | 1440 | 3530 | 8690 |
| 2026-04-10 17:30 | 2.10 | 433 | 20400 (1927) | 22 (1954) | 1670 | 75 | 125 | 258 | 299 | 616 | 1140 | 1440 | 3530 | 8690 |
| 2026-04-10 16:30 | 2.10 | 433 | 20400 (1927) | 22 (1954) | 1670 | 75 | 125 | 258 | 299 | 616 | 1140 | 1440 | 3530 | 8690 |
| 2026-04-10 15:30 | 2.11 | 438 | 20400 (1927) | 22 (1954) | 1670 | 75 | 125 | 258 | 299 | 616 | 1140 | 1440 | 3530 | 8690 |
| 2026-04-10 14:30 | 2.14 | 452 | 20400 (1927) | 22 (1954) | 1670 | 75 | 125 | 258 | 299 | 616 | 1140 | 1440 | 3530 | 8690 |
| 2026-04-10 13:30 | 2.07 | 419 | 20400 (1927) | 22 (1954) | 1670 | 75 | 125 | 258 | 299 | 616 | 1140 | 1440 | 3530 | 8690 |
| 2026-04-10 12:30 | 2.07 | 419 | 20400 (1927) | 22 (1954) | 1670 | 75 | 125 | 258 | 299 | 616 | 1140 | 1440 | 3530 | 8690 |
| 2026-04-10 11:30 | 2.07 | 419 | 20400 (1927) | 22 (1954) | 1670 | 75 | 125 | 258 | 299 | 616 | 1140 | 1440 | 3530 | 8690 |
| 2026-04-10 10:30 | 1.99 | 381 | 20400 (1927) | 22 (1954) | 1670 | 75 | 125 | 258 | 299 | 616 | 1140 | 1440 | 3530 | 8690 |
| 2026-04-10 09:30 | 1.99 | 381 | 20400 (1927) | 22 (1954) | 1670 | 75 | 125 | 258 | 299 | 616 | 1140 | 1440 | 3530 | 8690 |
| 2026-04-10 08:30 | 2.00 | 386 | 20400 (1927) | 22 (1954) | 1670 | 75 | 125 | 258 | 299 | 616 | 1140 | 1440 | 3530 | 8690 |
| 2026-04-10 07:30 | 1.99 | 381 | 20400 (1927) | 22 (1954) | 1670 | 75 | 125 | 258 | 299 | 616 | 1140 | 1440 | 3530 | 8690 |
| 2026-04-10 06:30 | 2.00 | 386 | 20400 (1927) | 22 (1954) | 1670 | 75 | 125 | 258 | 299 | 616 | 1140 | 1440 | 3530 | 8690 |
| 2026-04-10 05:30 | 1.99 | 381 | 20400 (1927) | 22 (1954) | 1670 | 75 | 125 | 258 | 299 | 616 | 1140 | 1440 | 3530 | 8690 |
| 2026-04-10 04:30 | 2.01 | 390 | 20400 (1927) | 22 (1954) | 1670 | 75 | 125 | 258 | 299 | 616 | 1140 | 1440 | 3530 | 8690 |
| 2026-04-10 03:30 | 2.03 | 400 | 20400 (1927) | 22 (1954) | 1670 | 75 | 125 | 258 | 299 | 616 | 1140 | 1440 | 3530 | 8690 |
| 2026-04-10 02:30 | 2.02 | 395 | 20400 (1927) | 22 (1954) | 1670 | 75 | 125 | 258 | 299 | 616 | 1140 | 1440 | 3530 | 8690 |
| 2026-04-10 01:30 | 2.02 | 395 | 20400 (1927) | 22 (1954) | 1670 | 75 | 125 | 258 | 299 | 616 | 1140 | 1440 | 3530 | 8690 |
| 2026-04-10 00:30 | 2.02 | 395 | 20400 (1927) | 22 (1954) | 1670 | 75 | 125 | 258 | 299 | 616 | 1140 | 1440 | 3530 | 8690 |
| 2026-04-09 23:30 | 2.05 | 409 | 20400 (1927) | 22 (1954) | 1670 | 75 | 125 | 258 | 299 | 616 | 1140 | 1440 | 3530 | 8690 |
| 2026-04-09 22:30 | 2.06 | 414 | 19400 (1929) | 24 (1954) | 1330 | 75 | 124 | 273 | 298 | 608 | 1160 | 1230 | 2310 | 5360 |
| 2026-04-09 21:30 | 2.06 | 414 | 19400 (1929) | 24 (1954) | 1330 | 75 | 124 | 273 | 298 | 608 | 1160 | 1230 | 2310 | 5360 |
| 2026-04-09 20:30 | 2.06 | 414 | 19400 (1929) | 24 (1954) | 1330 | 75 | 124 | 273 | 298 | 608 | 1160 | 1230 | 2310 | 5360 |
| 2026-04-09 19:30 | 2.05 | 409 | 19400 (1929) | 24 (1954) | 1330 | 75 | 124 | 273 | 298 | 608 | 1160 | 1230 | 2310 | 5360 |
| 2026-04-09 18:30 | 2.07 | 419 | 19400 (1929) | 24 (1954) | 1330 | 75 | 124 | 273 | 298 | 608 | 1160 | 1230 | 2310 | 5360 |
| 2026-04-09 17:30 | 2.05 | 409 | 19400 (1929) | 24 (1954) | 1330 | 75 | 124 | 273 | 298 | 608 | 1160 | 1230 | 2310 | 5360 |
| 2026-04-09 16:30 | 2.07 | 419 | 19400 (1929) | 24 (1954) | 1330 | 75 | 124 | 273 | 298 | 608 | 1160 | 1230 | 2310 | 5360 |
| 2026-04-09 15:30 | 2.06 | 414 | 19400 (1929) | 24 (1954) | 1330 | 75 | 124 | 273 | 298 | 608 | 1160 | 1230 | 2310 | 5360 |
| 2026-04-09 14:30 | 2.09 | 428 | 19400 (1929) | 24 (1954) | 1330 | 75 | 124 | 273 | 298 | 608 | 1160 | 1230 | 2310 | 5360 |
| 2026-04-09 13:30 | 2.08 | 423 | 19400 (1929) | 24 (1954) | 1330 | 75 | 124 | 273 | 298 | 608 | 1160 | 1230 | 2310 | 5360 |
| 2026-04-09 12:30 | 2.08 | 423 | 19400 (1929) | 24 (1954) | 1330 | 75 | 124 | 273 | 298 | 608 | 1160 | 1230 | 2310 | 5360 |
| 2026-04-09 11:30 | 2.10 | 433 | 19400 (1929) | 24 (1954) | 1330 | 75 | 124 | 273 | 298 | 608 | 1160 | 1230 | 2310 | 5360 |
| 2026-04-09 10:30 | 2.11 | 438 | 19400 (1929) | 24 (1954) | 1330 | 75 | 124 | 273 | 298 | 608 | 1160 | 1230 | 2310 | 5360 |
| 2026-04-09 09:30 | 2.09 | 428 | 19400 (1929) | 24 (1954) | 1330 | 75 | 124 | 273 | 298 | 608 | 1160 | 1230 | 2310 | 5360 |
| 2026-04-09 08:30 | 2.13 | 447 | 19400 (1929) | 24 (1954) | 1330 | 75 | 124 | 273 | 298 | 608 | 1160 | 1230 | 2310 | 5360 |
| 2026-04-09 07:30 | 2.11 | 438 | 19400 (1929) | 24 (1954) | 1330 | 75 | 124 | 273 | 298 | 608 | 1160 | 1230 | 2310 | 5360 |
| 2026-04-09 06:30 | 2.13 | 447 | 19400 (1929) | 24 (1954) | 1330 | 75 | 124 | 273 | 298 | 608 | 1160 | 1230 | 2310 | 5360 |
| 2026-04-09 05:30 | 2.13 | 447 | 19400 (1929) | 24 (1954) | 1330 | 75 | 124 | 273 | 298 | 608 | 1160 | 1230 | 2310 | 5360 |
| 2026-04-09 04:30 | 2.13 | 447 | 19400 (1929) | 24 (1954) | 1330 | 75 | 124 | 273 | 298 | 608 | 1160 | 1230 | 2310 | 5360 |
| 2026-04-09 03:30 | 2.14 | 452 | 19400 (1929) | 24 (1954) | 1330 | 75 | 124 | 273 | 298 | 608 | 1160 | 1230 | 2310 | 5360 |
| 2026-04-09 02:30 | 2.09 | 428 | 19400 (1929) | 24 (1954) | 1330 | 75 | 124 | 273 | 298 | 608 | 1160 | 1230 | 2310 | 5360 |
| 2026-04-09 01:30 | 2.15 | 456 | 19400 (1929) | 24 (1954) | 1330 | 75 | 124 | 273 | 298 | 608 | 1160 | 1230 | 2310 | 5360 |
| 2026-04-09 00:30 | 2.17 | 466 | 19400 (1929) | 24 (1954) | 1330 | 75 | 124 | 273 | 298 | 608 | 1160 | 1230 | 2310 | 5360 |
| 2026-04-08 23:30 | 2.16 | 461 | 19400 (1929) | 24 (1954) | 1330 | 75 | 124 | 273 | 298 | 608 | 1160 | 1230 | 2310 | 5360 |
| 2026-04-08 22:30 | 2.15 | 456 | 15800 (1929) | 24 (1956) | 1190 | 68 | 126 | 275 | 313 | 655 | 1170 | 1330 | 2120 | 4510 |
| 2026-04-08 21:30 | 2.17 | 466 | 15800 (1929) | 24 (1956) | 1190 | 68 | 126 | 275 | 313 | 655 | 1170 | 1330 | 2120 | 4510 |
| 2026-04-08 20:30 | 2.18 | 471 | 15800 (1929) | 24 (1956) | 1190 | 68 | 126 | 275 | 313 | 655 | 1170 | 1330 | 2120 | 4510 |
| 2026-04-08 19:30 | 2.20 | 480 | 15800 (1929) | 24 (1956) | 1190 | 68 | 126 | 275 | 313 | 655 | 1170 | 1330 | 2120 | 4510 |
| 2026-04-08 18:30 | 2.18 | 471 | 15800 (1929) | 24 (1956) | 1190 | 68 | 126 | 275 | 313 | 655 | 1170 | 1330 | 2120 | 4510 |
| 2026-04-08 17:30 | 2.21 | 485 | 15800 (1929) | 24 (1956) | 1190 | 68 | 126 | 275 | 313 | 655 | 1170 | 1330 | 2120 | 4510 |
| 2026-04-08 16:30 | 2.20 | 480 | 15800 (1929) | 24 (1956) | 1190 | 68 | 126 | 275 | 313 | 655 | 1170 | 1330 | 2120 | 4510 |
| 2026-04-08 15:30 | 2.22 | 490 | 15800 (1929) | 24 (1956) | 1190 | 68 | 126 | 275 | 313 | 655 | 1170 | 1330 | 2120 | 4510 |
| 2026-04-08 14:30 | 2.23 | 495 | 15800 (1929) | 24 (1956) | 1190 | 68 | 126 | 275 | 313 | 655 | 1170 | 1330 | 2120 | 4510 |
| 2026-04-08 13:30 | 2.22 | 490 | 15800 (1929) | 24 (1956) | 1190 | 68 | 126 | 275 | 313 | 655 | 1170 | 1330 | 2120 | 4510 |
| 2026-04-08 12:30 | 2.25 | 504 | 15800 (1929) | 24 (1956) | 1190 | 68 | 126 | 275 | 313 | 655 | 1170 | 1330 | 2120 | 4510 |
| 2026-04-08 11:30 | 2.24 | 500 | 15800 (1929) | 24 (1956) | 1190 | 68 | 126 | 275 | 313 | 655 | 1170 | 1330 | 2120 | 4510 |
| 2026-04-08 10:30 | 2.25 | 504 | 15800 (1929) | 24 (1956) | 1190 | 68 | 126 | 275 | 313 | 655 | 1170 | 1330 | 2120 | 4510 |
| 2026-04-08 09:30 | 2.23 | 495 | 15800 (1929) | 24 (1956) | 1190 | 68 | 126 | 275 | 313 | 655 | 1170 | 1330 | 2120 | 4510 |
| 2026-04-08 08:30 | 2.28 | 519 | 15800 (1929) | 24 (1956) | 1190 | 68 | 126 | 275 | 313 | 655 | 1170 | 1330 | 2120 | 4510 |
| 2026-04-08 07:30 | 2.27 | 514 | 15800 (1929) | 24 (1956) | 1190 | 68 | 126 | 275 | 313 | 655 | 1170 | 1330 | 2120 | 4510 |
| 2026-04-08 06:30 | 2.28 | 519 | 15800 (1929) | 24 (1956) | 1190 | 68 | 126 | 275 | 313 | 655 | 1170 | 1330 | 2120 | 4510 |
| 2026-04-08 05:30 | 2.29 | 524 | 15800 (1929) | 24 (1956) | 1190 | 68 | 126 | 275 | 313 | 655 | 1170 | 1330 | 2120 | 4510 |
| 2026-04-08 04:30 | 2.28 | 519 | 15800 (1929) | 24 (1956) | 1190 | 68 | 126 | 275 | 313 | 655 | 1170 | 1330 | 2120 | 4510 |
| 2026-04-08 03:30 | 2.28 | 519 | 15800 (1929) | 24 (1956) | 1190 | 68 | 126 | 275 | 313 | 655 | 1170 | 1330 | 2120 | 4510 |
| 2026-04-08 02:30 | 2.28 | 519 | 15800 (1929) | 24 (1956) | 1190 | 68 | 126 | 275 | 313 | 655 | 1170 | 1330 | 2120 | 4510 |
| 2026-04-08 01:30 | 2.30 | 529 | 15800 (1929) | 24 (1956) | 1190 | 68 | 126 | 275 | 313 | 655 | 1170 | 1330 | 2120 | 4510 |
| 2026-04-08 00:30 | 2.33 | 545 | 15800 (1929) | 24 (1956) | 1190 | 68 | 126 | 275 | 313 | 655 | 1170 | 1330 | 2120 | 4510 |
| 2026-04-07 23:30 | 2.34 | 550 | 15800 (1929) | 24 (1956) | 1190 | 68 | 126 | 275 | 313 | 655 | 1170 | 1330 | 2120 | 4510 |
| 2026-04-07 22:30 | 2.33 | 545 | 12900 (1965) | 26 (1956) | 1120 | 76 | 131 | 281 | 326 | 705 | 1210 | 1480 | 2080 | 3840 |
| 2026-04-07 21:30 | 2.37 | 565 | 12900 (1965) | 26 (1956) | 1120 | 76 | 131 | 281 | 326 | 705 | 1210 | 1480 | 2080 | 3840 |
| 2026-04-07 20:30 | 2.35 | 555 | 12900 (1965) | 26 (1956) | 1120 | 76 | 131 | 281 | 326 | 705 | 1210 | 1480 | 2080 | 3840 |
| 2026-04-07 19:30 | 2.36 | 560 | 12900 (1965) | 26 (1956) | 1120 | 76 | 131 | 281 | 326 | 705 | 1210 | 1480 | 2080 | 3840 |
| 2026-04-07 18:30 | 2.31 | 570 | 12900 (1965) | 26 (1956) | 1120 | 76 | 131 | 281 | 326 | 705 | 1210 | 1480 | 2080 | 3840 |
| 2026-04-07 17:30 | 2.30 | 565 | 12900 (1965) | 26 (1956) | 1120 | 76 | 131 | 281 | 326 | 705 | 1210 | 1480 | 2080 | 3840 |
| 2026-04-07 16:30 | 2.33 | 581 | 12900 (1965) | 26 (1956) | 1120 | 76 | 131 | 281 | 326 | 705 | 1210 | 1480 | 2080 | 3840 |
| 2026-04-07 15:30 | 2.39 | 612 | 12900 (1965) | 26 (1956) | 1120 | 76 | 131 | 281 | 326 | 705 | 1210 | 1480 | 2080 | 3840 |
| 2026-04-07 14:30 | 2.34 | 586 | 12900 (1965) | 26 (1956) | 1120 | 76 | 131 | 281 | 326 | 705 | 1210 | 1480 | 2080 | 3840 |
| 2026-04-07 13:30 | 2.37 | 602 | 12900 (1965) | 26 (1956) | 1120 | 76 | 131 | 281 | 326 | 705 | 1210 | 1480 | 2080 | 3840 |
| 2026-04-07 12:30 | 2.41 | 623 | 12900 (1965) | 26 (1956) | 1120 | 76 | 131 | 281 | 326 | 705 | 1210 | 1480 | 2080 | 3840 |
| 2026-04-07 11:30 | 2.43 | 634 | 12900 (1965) | 26 (1956) | 1120 | 76 | 131 | 281 | 326 | 705 | 1210 | 1480 | 2080 | 3840 |
| 2026-04-07 10:30 | 2.44 | 640 | 12900 (1965) | 26 (1956) | 1120 | 76 | 131 | 281 | 326 | 705 | 1210 | 1480 | 2080 | 3840 |
| 2026-04-07 09:30 | 2.42 | 629 | 12900 (1965) | 26 (1956) | 1120 | 76 | 131 | 281 | 326 | 705 | 1210 | 1480 | 2080 | 3840 |
| 2026-04-07 08:30 | 2.44 | 640 | 12900 (1965) | 26 (1956) | 1120 | 76 | 131 | 281 | 326 | 705 | 1210 | 1480 | 2080 | 3840 |
| 2026-04-07 07:30 | 2.48 | 662 | 12900 (1965) | 26 (1956) | 1120 | 76 | 131 | 281 | 326 | 705 | 1210 | 1480 | 2080 | 3840 |
| 2026-04-07 06:30 | 2.47 | 656 | 12900 (1965) | 26 (1956) | 1120 | 76 | 131 | 281 | 326 | 705 | 1210 | 1480 | 2080 | 3840 |
| 2026-04-07 05:30 | 2.50 | 673 | 12900 (1965) | 26 (1956) | 1120 | 76 | 131 | 281 | 326 | 705 | 1210 | 1480 | 2080 | 3840 |
| 2026-04-07 04:30 | 2.53 | 688 | 12900 (1965) | 26 (1956) | 1120 | 76 | 131 | 281 | 326 | 705 | 1210 | 1480 | 2080 | 3840 |
| 2026-04-07 03:30 | 2.53 | 688 | 12900 (1965) | 26 (1956) | 1120 | 76 | 131 | 281 | 326 | 705 | 1210 | 1480 | 2080 | 3840 |
| 2026-04-07 02:30 | 2.57 | 709 | 12900 (1965) | 26 (1956) | 1120 | 76 | 131 | 281 | 326 | 705 | 1210 | 1480 | 2080 | 3840 |
| 2026-04-07 01:30 | 2.62 | 736 | 12900 (1965) | 26 (1956) | 1120 | 76 | 131 | 281 | 326 | 705 | 1210 | 1480 | 2080 | 3840 |
| 2026-04-07 00:30 | 2.62 | 736 | 12900 (1965) | 26 (1956) | 1120 | 76 | 131 | 281 | 326 | 705 | 1210 | 1480 | 2080 | 3840 |
| 2026-04-06 23:30 | 2.64 | 747 | 12900 (1965) | 26 (1956) | 1120 | 76 | 131 | 281 | 326 | 705 | 1210 | 1480 | 2080 | 3840 |
| 2026-04-06 22:30 | 2.69 | 774 | 16200 (1965) | 26 (1956) | 1290 | 78 | 130 | 290 | 332 | 732 | 1180 | 1480 | 2230 | 6410 |
| 2026-04-06 21:30 | 2.71 | 785 | 16200 (1965) | 26 (1956) | 1290 | 78 | 130 | 290 | 332 | 732 | 1180 | 1480 | 2230 | 6410 |
| 2026-04-06 20:30 | 2.74 | 801 | 16200 (1965) | 26 (1956) | 1290 | 78 | 130 | 290 | 332 | 732 | 1180 | 1480 | 2230 | 6410 |
| 2026-04-06 19:30 | 2.78 | 824 | 16200 (1965) | 26 (1956) | 1290 | 78 | 130 | 290 | 332 | 732 | 1180 | 1480 | 2230 | 6410 |
| 2026-04-06 18:30 | 2.80 | 835 | 16200 (1965) | 26 (1956) | 1290 | 78 | 130 | 290 | 332 | 732 | 1180 | 1480 | 2230 | 6410 |
| 2026-04-06 17:30 | 2.84 | 858 | 16200 (1965) | 26 (1956) | 1290 | 78 | 130 | 290 | 332 | 732 | 1180 | 1480 | 2230 | 6410 |
| 2026-04-06 16:30 | 2.88 | 881 | 16200 (1965) | 26 (1956) | 1290 | 78 | 130 | 290 | 332 | 732 | 1180 | 1480 | 2230 | 6410 |
| 2026-04-06 14:30 | 2.94 | 916 | 16200 (1965) | 26 (1956) | 1290 | 78 | 130 | 290 | 332 | 732 | 1180 | 1480 | 2230 | 6410 |
| 2026-04-06 13:30 | 2.98 | 940 | 16200 (1965) | 26 (1956) | 1290 | 78 | 130 | 290 | 332 | 732 | 1180 | 1480 | 2230 | 6410 |
| 2026-04-06 12:30 | 3.03 | 971 | 16200 (1965) | 26 (1956) | 1290 | 78 | 130 | 290 | 332 | 732 | 1180 | 1480 | 2230 | 6410 |
| 2026-04-06 11:30 | 3.08 | 1000 | 16200 (1965) | 26 (1956) | 1290 | 78 | 130 | 290 | 332 | 732 | 1180 | 1480 | 2230 | 6410 |
| 2026-04-06 10:30 | 3.10 | 1020 | 16200 (1965) | 26 (1956) | 1290 | 78 | 130 | 290 | 332 | 732 | 1180 | 1480 | 2230 | 6410 |
| 2026-04-06 09:30 | 3.19 | 1070 | 16200 (1965) | 26 (1956) | 1290 | 78 | 130 | 290 | 332 | 732 | 1180 | 1480 | 2230 | 6410 |
| 2026-04-06 08:30 | 3.25 | 1110 | 16200 (1965) | 26 (1956) | 1290 | 78 | 130 | 290 | 332 | 732 | 1180 | 1480 | 2230 | 6410 |
| 2026-04-06 07:30 | 3.32 | 1150 | 16200 (1965) | 26 (1956) | 1290 | 78 | 130 | 290 | 332 | 732 | 1180 | 1480 | 2230 | 6410 |
| 2026-04-06 06:30 | 3.39 | 1200 | 16200 (1965) | 26 (1956) | 1290 | 78 | 130 | 290 | 332 | 732 | 1180 | 1480 | 2230 | 6410 |
| 2026-04-06 05:30 | 3.43 | 1230 | 16200 (1965) | 26 (1956) | 1290 | 78 | 130 | 290 | 332 | 732 | 1180 | 1480 | 2230 | 6410 |
| 2026-04-06 04:30 | 3.52 | 1280 | 16200 (1965) | 26 (1956) | 1290 | 78 | 130 | 290 | 332 | 732 | 1180 | 1480 | 2230 | 6410 |
| 2026-04-06 03:30 | 3.55 | 1310 | 16200 (1965) | 26 (1956) | 1290 | 78 | 130 | 290 | 332 | 732 | 1180 | 1480 | 2230 | 6410 |
| 2026-04-06 02:30 | 3.63 | 1360 | 16200 (1965) | 26 (1956) | 1290 | 78 | 130 | 290 | 332 | 732 | 1180 | 1480 | 2230 | 6410 |
| 2026-04-06 01:30 | 3.72 | 1420 | 16200 (1965) | 26 (1956) | 1290 | 78 | 130 | 290 | 332 | 732 | 1180 | 1480 | 2230 | 6410 |
| 2026-04-06 00:30 | 3.81 | 1490 | 16200 (1965) | 26 (1956) | 1290 | 78 | 130 | 290 | 332 | 732 | 1180 | 1480 | 2230 | 6410 |
| 2026-04-05 23:30 | 3.83 | 1500 | 16200 (1965) | 26 (1956) | 1290 | 78 | 130 | 290 | 332 | 732 | 1180 | 1480 | 2230 | 6410 |
| 2026-04-05 22:30 | 3.92 | 1560 | 14600 (1965) | 26 (1954) | 1350 | 71 | 132 | 295 | 323 | 729 | 1310 | 1560 | 3230 | 5130 |
| 2026-04-05 21:30 | 3.96 | 1590 | 14600 (1965) | 26 (1954) | 1350 | 71 | 132 | 295 | 323 | 729 | 1310 | 1560 | 3230 | 5130 |
| 2026-04-05 20:30 | 4.01 | 1630 | 14600 (1965) | 26 (1954) | 1350 | 71 | 132 | 295 | 323 | 729 | 1310 | 1560 | 3230 | 5130 |
| 2026-04-05 19:30 | 4.04 | 1650 | 14600 (1965) | 26 (1954) | 1350 | 71 | 132 | 295 | 323 | 729 | 1310 | 1560 | 3230 | 5130 |
| 2026-04-05 18:30 | 4.08 | 1680 | 14600 (1965) | 26 (1954) | 1350 | 71 | 132 | 295 | 323 | 729 | 1310 | 1560 | 3230 | 5130 |
| 2026-04-05 17:30 | 4.04 | 1650 | 14600 (1965) | 26 (1954) | 1350 | 71 | 132 | 295 | 323 | 729 | 1310 | 1560 | 3230 | 5130 |
| 2026-04-05 16:30 | 4.05 | 1650 | 14600 (1965) | 26 (1954) | 1350 | 71 | 132 | 295 | 323 | 729 | 1310 | 1560 | 3230 | 5130 |
| 2026-04-05 15:30 | 4.08 | 1680 | 14600 (1965) | 26 (1954) | 1350 | 71 | 132 | 295 | 323 | 729 | 1310 | 1560 | 3230 | 5130 |
| 2026-04-05 14:30 | 4.03 | 1640 | 14600 (1965) | 26 (1954) | 1350 | 71 | 132 | 295 | 323 | 729 | 1310 | 1560 | 3230 | 5130 |
| 2026-04-05 13:30 | 4.04 | 1650 | 14600 (1965) | 26 (1954) | 1350 | 71 | 132 | 295 | 323 | 729 | 1310 | 1560 | 3230 | 5130 |
| 2026-04-05 12:30 | 4.03 | 1640 | 14600 (1965) | 26 (1954) | 1350 | 71 | 132 | 295 | 323 | 729 | 1310 | 1560 | 3230 | 5130 |
| 2026-04-05 11:30 | 4.02 | 1630 | 14600 (1965) | 26 (1954) | 1350 | 71 | 132 | 295 | 323 | 729 | 1310 | 1560 | 3230 | 5130 |
| 2026-04-05 10:30 | 4.01 | 1630 | 14600 (1965) | 26 (1954) | 1350 | 71 | 132 | 295 | 323 | 729 | 1310 | 1560 | 3230 | 5130 |
| 2026-04-05 09:30 | 4.06 | 1660 | 14600 (1965) | 26 (1954) | 1350 | 71 | 132 | 295 | 323 | 729 | 1310 | 1560 | 3230 | 5130 |
| 2026-04-05 08:30 | 4.06 | 1660 | 14600 (1965) | 26 (1954) | 1350 | 71 | 132 | 295 | 323 | 729 | 1310 | 1560 | 3230 | 5130 |
| 2026-04-05 07:30 | 4.11 | 1700 | 14600 (1965) | 26 (1954) | 1350 | 71 | 132 | 295 | 323 | 729 | 1310 | 1560 | 3230 | 5130 |
| 2026-04-05 06:30 | 4.21 | 1760 | 14600 (1965) | 26 (1954) | 1350 | 71 | 132 | 295 | 323 | 729 | 1310 | 1560 | 3230 | 5130 |
| 2026-04-05 05:30 | 4.28 | 1820 | 14600 (1965) | 26 (1954) | 1350 | 71 | 132 | 295 | 323 | 729 | 1310 | 1560 | 3230 | 5130 |
| 2026-04-05 04:30 | 4.21 | 1760 | 14600 (1965) | 26 (1954) | 1350 | 71 | 132 | 295 | 323 | 729 | 1310 | 1560 | 3230 | 5130 |
| 2026-04-05 03:30 | 4.42 | 1920 | 14600 (1965) | 26 (1954) | 1350 | 71 | 132 | 295 | 323 | 729 | 1310 | 1560 | 3230 | 5130 |
| 2026-04-05 02:30 | 4.56 | 2020 | 14600 (1965) | 26 (1954) | 1350 | 71 | 132 | 295 | 323 | 729 | 1310 | 1560 | 3230 | 5130 |
| 2026-04-05 01:30 | 4.62 | 2070 | 14600 (1965) | 26 (1954) | 1350 | 71 | 132 | 295 | 323 | 729 | 1310 | 1560 | 3230 | 5130 |
| 2026-04-05 00:30 | 4.81 | 2210 | 14600 (1965) | 26 (1954) | 1350 | 71 | 132 | 295 | 323 | 729 | 1310 | 1560 | 3230 | 5130 |
| 2026-04-04 23:30 | 4.97 | 2330 | 14600 (1965) | 26 (1954) | 1350 | 71 | 132 | 295 | 323 | 729 | 1310 | 1560 | 3230 | 5130 |
A total of 728 rows are displayed for years 1925 through 2025.